Time,TemperatureF,DewpointF,PressureIn,WindDirection,WindDirectionDegrees,WindSpeedMPH,WindSpeedGustMPH,Humidity,HourlyPrecipIn,Conditions,Clouds,dailyrainin,SoftwareType,DateUTC
2013-05-14 00:00:00,41.9,34.2,30.21,East,100,0.0,1.0,74,0.00,,CLR,0.00,VWS V14.01,2013-05-14 04:00:00,
2013-05-14 00:01:00,41.9,34.2,30.21,East,100,0.0,1.0,74,0.00,,CLR,0.00,VWS V14.01,2013-05-14 04:01:00,
2013-05-14 00:02:00,41.8,34.1,30.21,East,100,0.0,1.0,74,0.00,,CLR,0.00,VWS V14.01,2013-05-14 04:02:00,
2013-05-14 00:03:00,41.8,34.1,30.21,East,101,0.0,0.0,74,0.00,,CLR,0.00,VWS V14.01,2013-05-14 04:03:00,
2013-05-14 00:04:00,41.8,34.5,30.21,East,101,0.0,0.0,75,0.00,,CLR,0.00,VWS V14.01,2013-05-14 04:04:00,
2013-05-14 00:05:00,41.7,34.4,30.21,East,100,0.0,0.0,75,0.00,,CLR,0.00,VWS V14.01,2013-05-14 04:05:00,
2013-05-14 00:06:00,41.6,34.3,30.22,East,101,0.0,0.0,75,0.00,,CLR,0.00,VWS V14.01,2013-05-14 04:06:00,
2013-05-14 00:07:00,41.6,34.3,30.22,East,100,0.0,0.0,75,0.00,,CLR,0.00,VWS V14.01,2013-05-14 04:07:00,
2013-05-14 00:08:00,41.6,34.3,30.22,East,101,0.0,1.0,75,0.00,,CLR,0.00,VWS V14.01,2013-05-14 04:08:00,
2013-05-14 00:09:00,41.5,34.2,30.21,East,100,0.0,0.0,75,0.00,,CLR,0.00,VWS V14.01,2013-05-14 04:09:00,
2013-05-14 00:10:00,41.5,34.2,30.21,East,100,0.0,0.0,75,0.00,,CLR,0.00,VWS V14.01,2013-05-14 04:10:00,
2013-05-14 00:11:00,41.5,34.5,30.21,East,101,0.0,1.0,76,0.00,,CLR,0.00,VWS V14.01,2013-05-14 04:11:00,
2013-05-14 00:12:00,41.5,34.5,30.21,East,100,0.0,0.0,76,0.00,,CLR,0.00,VWS V14.01,2013-05-14 04:12:00,
2013-05-14 00:13:00,41.5,34.5,30.21,East,100,0.0,0.0,76,0.00,,CLR,0.00,VWS V14.01,2013-05-14 04:13:00,
2013-05-14 00:14:00,41.4,34.4,30.21,East,100,0.0,0.0,76,0.00,,CLR,0.00,VWS V14.01,2013-05-14 04:14:00,
2013-05-14 00:15:00,41.4,34.4,30.21,East,100,0.0,0.0,76,0.00,,CLR,0.00,VWS V14.01,2013-05-14 04:15:00,
2013-05-14 00:16:00,41.4,34.4,30.21,East,100,0.0,1.0,76,0.00,,CLR,0.00,VWS V14.01,2013-05-14 04:16:00,
2013-05-14 00:17:00,41.4,34.4,30.21,East,101,1.0,1.0,76,0.00,,CLR,0.00,VWS V14.01,2013-05-14 04:17:00,
2013-05-14 00:18:00,41.3,34.3,30.21,East,100,0.0,1.0,76,0.00,,CLR,0.00,VWS V14.01,2013-05-14 04:18:00,
2013-05-14 00:19:00,41.3,34.7,30.21,East,101,0.0,1.0,77,0.00,,CLR,0.00,VWS V14.01,2013-05-14 04:19:00,
2013-05-14 00:20:00,41.3,34.7,30.21,East,100,0.0,1.0,77,0.00,,CLR,0.00,VWS V14.01,2013-05-14 04:20:00,
2013-05-14 00:21:00,41.4,34.7,30.21,East,101,0.0,1.0,77,0.00,,CLR,0.00,VWS V14.01,2013-05-14 04:21:00,
2013-05-14 00:22:00,41.3,34.7,30.21,East,101,0.0,1.0,77,0.00,,CLR,0.00,VWS V14.01,2013-05-14 04:22:00,
2013-05-14 00:23:00,41.3,34.7,30.21,East,101,0.0,1.0,77,0.00,,CLR,0.00,VWS V14.01,2013-05-14 04:23:00,
2013-05-14 00:24:00,41.3,34.7,30.21,East,101,0.0,1.0,77,0.00,,CLR,0.00,VWS V14.01,2013-05-14 04:24:00,
2013-05-14 00:25:00,41.3,34.7,30.21,East,101,0.0,0.0,77,0.00,,CLR,0.00,VWS V14.01,2013-05-14 04:25:00,
2013-05-14 00:26:00,41.3,34.7,30.22,East,101,0.0,0.0,77,0.00,,CLR,0.00,VWS V14.01,2013-05-14 04:26:00,
2013-05-14 00:27:00,41.3,34.7,30.22,East,100,0.0,0.0,77,0.00,,CLR,0.00,VWS V14.01,2013-05-14 04:27:00,
2013-05-14 00:28:00,41.3,34.7,30.21,East,101,0.0,0.0,77,0.00,,CLR,0.00,VWS V14.01,2013-05-14 04:28:00,
2013-05-14 00:29:00,41.2,34.5,30.21,East,101,0.0,1.0,77,0.00,,CLR,0.00,VWS V14.01,2013-05-14 04:29:00,
2013-05-14 00:30:00,41.3,34.7,30.21,East,100,0.0,1.0,77,0.00,,CLR,0.00,VWS V14.01,2013-05-14 04:30:00,
2013-05-14 00:31:00,41.2,34.5,30.22,East,100,0.0,0.0,77,0.00,,CLR,0.00,VWS V14.01,2013-05-14 04:31:00,
2013-05-14 00:32:00,41.2,34.5,30.22,East,101,0.0,1.0,77,0.00,,CLR,0.00,VWS V14.01,2013-05-14 04:32:00,
2013-05-14 00:33:00,41.1,34.5,30.21,East,100,0.0,1.0,77,0.00,,CLR,0.00,VWS V14.01,2013-05-14 04:33:00,
2013-05-14 00:34:00,41.1,34.5,30.21,East,100,0.0,1.0,77,0.00,,CLR,0.00,VWS V14.01,2013-05-14 04:34:00,
2013-05-14 00:35:00,41.1,34.5,30.21,East,101,0.0,0.0,77,0.00,,CLR,0.00,VWS V14.01,2013-05-14 04:35:00,
2013-05-14 00:36:00,41.1,34.5,30.21,East,101,0.0,0.0,77,0.00,,CLR,0.00,VWS V14.01,2013-05-14 04:36:00,
2013-05-14 00:37:00,41.0,34.3,30.21,East,101,0.0,0.0,77,0.00,,CLR,0.00,VWS V14.01,2013-05-14 04:37:00,
2013-05-14 00:38:00,40.9,34.3,30.21,East,101,0.0,0.0,77,0.00,,CLR,0.00,VWS V14.01,2013-05-14 04:38:00,
2013-05-14 00:39:00,40.9,34.3,30.21,East,100,0.0,0.0,77,0.00,,CLR,0.00,VWS V14.01,2013-05-14 04:39:00,
2013-05-14 00:40:00,40.8,34.2,30.21,East,100,0.0,0.0,77,0.00,,CLR,0.00,VWS V14.01,2013-05-14 04:40:00,
2013-05-14 00:41:00,40.7,34.4,30.21,East,101,0.0,0.0,78,0.00,,CLR,0.00,VWS V14.01,2013-05-14 04:41:00,
2013-05-14 00:42:00,40.7,34.4,30.21,East,100,0.0,0.0,78,0.00,,CLR,0.00,VWS V14.01,2013-05-14 04:42:00,
2013-05-14 00:43:00,40.6,34.3,30.21,East,101,0.0,0.0,78,0.00,,CLR,0.00,VWS V14.01,2013-05-14 04:43:00,
2013-05-14 00:44:00,40.6,34.3,30.21,East,100,0.0,0.0,78,0.00,,CLR,0.00,VWS V14.01,2013-05-14 04:44:00,
2013-05-14 00:45:00,40.5,34.2,30.21,East,101,0.0,0.0,78,0.00,,CLR,0.00,VWS V14.01,2013-05-14 04:45:00,
2013-05-14 00:46:00,40.5,34.5,30.21,East,101,0.0,0.0,79,0.00,,CLR,0.00,VWS V14.01,2013-05-14 04:46:00,
2013-05-14 00:47:00,40.4,34.4,30.21,East,100,0.0,0.0,79,0.00,,CLR,0.00,VWS V14.01,2013-05-14 04:47:00,
2013-05-14 00:48:00,40.4,34.4,30.21,East,101,0.0,0.0,79,0.00,,CLR,0.00,VWS V14.01,2013-05-14 04:48:00,
2013-05-14 00:49:00,40.4,34.4,30.21,East,100,0.0,0.0,79,0.00,,CLR,0.00,VWS V14.01,2013-05-14 04:49:00,
2013-05-14 00:50:00,40.4,34.4,30.21,East,101,0.0,0.0,79,0.00,,CLR,0.00,VWS V14.01,2013-05-14 04:50:00,
2013-05-14 00:51:00,40.4,34.4,30.21,East,100,0.0,0.0,79,0.00,,CLR,0.00,VWS V14.01,2013-05-14 04:51:00,
2013-05-14 00:52:00,40.4,34.4,30.21,East,101,0.0,0.0,79,0.00,,CLR,0.00,VWS V14.01,2013-05-14 04:52:00,
2013-05-14 00:53:00,40.4,34.4,30.21,East,100,0.0,0.0,79,0.00,,CLR,0.00,VWS V14.01,2013-05-14 04:53:00,
2013-05-14 00:54:00,40.4,34.4,30.21,East,94,0.0,0.0,79,0.00,,CLR,0.00,VWS V14.01,2013-05-14 04:54:00,
2013-05-14 00:55:00,40.4,34.4,30.21,East,94,0.0,1.0,79,0.00,,CLR,0.00,VWS V14.01,2013-05-14 04:55:00,
2013-05-14 00:56:00,40.4,34.4,30.21,East,94,0.0,0.0,79,0.00,,CLR,0.00,VWS V14.01,2013-05-14 04:56:00,
2013-05-14 00:57:00,40.4,34.4,30.21,East,95,0.0,1.0,79,0.00,,CLR,0.00,VWS V14.01,2013-05-14 04:57:00,
2013-05-14 00:58:00,40.3,34.3,30.21,East,95,0.0,1.0,79,0.00,,CLR,0.00,VWS V14.01,2013-05-14 04:58:00,
2013-05-14 00:59:00,40.3,34.3,30.21,East,95,0.0,1.0,79,0.00,,CLR,0.00,VWS V14.01,2013-05-14 04:59:00,
2013-05-14 01:00:00,40.4,34.4,30.21,East,95,0.0,1.0,79,0.00,,CLR,0.00,VWS V14.01,2013-05-14 05:00:00,
2013-05-14 01:01:00,40.4,34.4,30.21,East,91,1.0,1.0,79,0.00,,CLR,0.00,VWS V14.01,2013-05-14 05:01:00,
2013-05-14 01:02:00,40.4,34.4,30.21,East,90,1.0,1.0,79,0.00,,CLR,0.00,VWS V14.01,2013-05-14 05:02:00,
2013-05-14 01:03:00,40.4,34.4,30.21,East,90,1.0,2.0,79,0.00,,CLR,0.00,VWS V14.01,2013-05-14 05:03:00,
2013-05-14 01:04:00,40.4,34.7,30.21,East,86,2.0,2.0,80,0.00,,CLR,0.00,VWS V14.01,2013-05-14 05:04:00,
2013-05-14 01:05:00,40.4,34.7,30.21,East,98,0.0,2.0,80,0.00,,CLR,0.00,VWS V14.01,2013-05-14 05:05:00,
2013-05-14 01:06:00,40.4,34.7,30.21,East,97,0.0,1.0,80,0.00,,CLR,0.00,VWS V14.01,2013-05-14 05:06:00,
2013-05-14 01:07:00,40.3,34.6,30.21,East,97,0.0,1.0,80,0.00,,CLR,0.00,VWS V14.01,2013-05-14 05:07:00,
2013-05-14 01:08:00,40.3,34.6,30.21,ESE,109,0.0,1.0,80,0.00,,CLR,0.00,VWS V14.01,2013-05-14 05:08:00,
2013-05-14 01:09:00,40.3,34.6,30.21,ESE,109,1.0,1.0,80,0.00,,CLR,0.00,VWS V14.01,2013-05-14 05:09:00,
2013-05-14 01:10:00,40.3,34.6,30.21,ESE,108,0.0,1.0,80,0.00,,CLR,0.00,VWS V14.01,2013-05-14 05:10:00,
2013-05-14 01:11:00,40.3,34.6,30.21,ESE,109,1.0,1.0,80,0.00,,CLR,0.00,VWS V14.01,2013-05-14 05:11:00,
2013-05-14 01:12:00,40.3,34.6,30.21,ESE,108,0.0,1.0,80,0.00,,CLR,0.00,VWS V14.01,2013-05-14 05:12:00,
2013-05-14 01:13:00,40.3,34.6,30.21,ESE,109,0.0,1.0,80,0.00,,CLR,0.00,VWS V14.01,2013-05-14 05:13:00,
2013-05-14 01:14:00,40.3,34.6,30.21,ESE,107,0.0,1.0,80,0.00,,CLR,0.00,VWS V14.01,2013-05-14 05:14:00,
2013-05-14 01:15:00,40.3,34.6,30.21,ESE,108,0.0,1.0,80,0.00,,CLR,0.00,VWS V14.01,2013-05-14 05:15:00,
2013-05-14 01:16:00,40.3,34.6,30.21,ESE,104,0.0,1.0,80,0.00,,CLR,0.00,VWS V14.01,2013-05-14 05:16:00,
2013-05-14 01:17:00,40.3,34.6,30.21,East,91,1.0,1.0,80,0.00,,CLR,0.00,VWS V14.01,2013-05-14 05:17:00,
2013-05-14 01:18:00,40.3,34.6,30.21,East,79,1.0,1.0,80,0.00,,CLR,0.00,VWS V14.01,2013-05-14 05:18:00,
2013-05-14 01:19:00,40.2,34.5,30.21,ENE,77,1.0,1.0,80,0.00,,CLR,0.00,VWS V14.01,2013-05-14 05:19:00,
2013-05-14 01:20:00,40.3,34.6,30.21,ENE,72,1.0,2.0,80,0.00,,CLR,0.00,VWS V14.01,2013-05-14 05:20:00,
2013-05-14 01:21:00,40.2,34.5,30.21,ENE,72,0.0,2.0,80,0.00,,CLR,0.00,VWS V14.01,2013-05-14 05:21:00,
2013-05-14 01:22:00,40.2,34.5,30.21,ENE,72,0.0,0.0,80,0.00,,CLR,0.00,VWS V14.01,2013-05-14 05:22:00,
2013-05-14 01:23:00,40.2,34.5,30.21,ENE,72,0.0,0.0,80,0.00,,CLR,0.00,VWS V14.01,2013-05-14 05:23:00,
2013-05-14 01:24:00,40.2,34.5,30.21,ENE,72,0.0,1.0,80,0.00,,CLR,0.00,VWS V14.01,2013-05-14 05:24:00,
2013-05-14 01:25:00,40.2,34.5,30.21,East,82,1.0,1.0,80,0.00,,CLR,0.00,VWS V14.01,2013-05-14 05:25:00,
2013-05-14 01:26:00,40.2,34.5,30.21,East,91,0.0,1.0,80,0.00,,CLR,0.00,VWS V14.01,2013-05-14 05:26:00,
2013-05-14 01:27:00,40.2,34.5,30.21,East,90,0.0,1.0,80,0.00,,CLR,0.00,VWS V14.01,2013-05-14 05:27:00,
2013-05-14 01:28:00,40.2,34.5,30.21,East,89,0.0,1.0,80,0.00,,CLR,0.00,VWS V14.01,2013-05-14 05:28:00,
2013-05-14 01:29:00,40.2,34.5,30.21,East,89,0.0,1.0,80,0.00,,CLR,0.00,VWS V14.01,2013-05-14 05:29:00,
2013-05-14 01:30:00,40.1,34.4,30.21,East,89,0.0,0.0,80,0.00,,CLR,0.00,VWS V14.01,2013-05-14 05:30:00,
2013-05-14 01:31:00,40.1,34.4,30.21,East,89,0.0,1.0,80,0.00,,CLR,0.00,VWS V14.01,2013-05-14 05:31:00,
2013-05-14 01:32:00,40.1,34.4,30.21,East,89,0.0,1.0,80,0.00,,CLR,0.00,VWS V14.01,2013-05-14 05:32:00,
2013-05-14 01:33:00,40.1,34.4,30.21,East,89,0.0,1.0,80,0.00,,CLR,0.00,VWS V14.01,2013-05-14 05:33:00,
2013-05-14 01:34:00,40.1,34.4,30.21,East,89,0.0,1.0,80,0.00,,CLR,0.00,VWS V14.01,2013-05-14 05:34:00,
2013-05-14 01:35:00,40.0,34.3,30.21,East,89,1.0,1.0,80,0.00,,CLR,0.00,VWS V14.01,2013-05-14 05:35:00,
2013-05-14 01:36:00,40.0,34.3,30.21,East,89,1.0,1.0,80,0.00,,CLR,0.00,VWS V14.01,2013-05-14 05:36:00,
2013-05-14 01:37:00,40.0,34.3,30.21,East,89,1.0,1.0,80,0.00,,CLR,0.00,VWS V14.01,2013-05-14 05:37:00,
2013-05-14 01:38:00,40.0,34.3,30.21,East,89,0.0,1.0,80,0.00,,CLR,0.00,VWS V14.01,2013-05-14 05:38:00,
2013-05-14 01:39:00,40.0,34.3,30.21,East,89,0.0,1.0,80,0.00,,CLR,0.00,VWS V14.01,2013-05-14 05:39:00,
2013-05-14 01:40:00,40.0,34.3,30.21,ENE,73,0.0,1.0,80,0.00,,CLR,0.00,VWS V14.01,2013-05-14 05:40:00,
2013-05-14 01:41:00,40.0,34.3,30.21,ENE,73,1.0,1.0,80,0.00,,CLR,0.00,VWS V14.01,2013-05-14 05:41:00,
2013-05-14 01:42:00,40.0,34.3,30.21,ENE,73,0.0,1.0,80,0.00,,CLR,0.00,VWS V14.01,2013-05-14 05:42:00,
2013-05-14 01:43:00,40.0,34.3,30.21,ENE,73,1.0,1.0,80,0.00,,CLR,0.00,VWS V14.01,2013-05-14 05:43:00,
2013-05-14 01:44:00,39.9,34.2,30.21,East,87,1.0,1.0,80,0.00,,CLR,0.00,VWS V14.01,2013-05-14 05:44:00,
2013-05-14 01:45:00,39.9,34.5,30.21,East,100,1.0,1.0,81,0.00,,CLR,0.00,VWS V14.01,2013-05-14 05:45:00,
2013-05-14 01:46:00,39.9,34.5,30.21,East,91,0.0,2.0,81,0.00,,CLR,0.00,VWS V14.01,2013-05-14 05:46:00,
2013-05-14 01:47:00,40.0,34.7,30.21,East,93,1.0,1.0,81,0.00,,CLR,0.00,VWS V14.01,2013-05-14 05:47:00,
2013-05-14 01:48:00,40.0,34.7,30.21,East,86,1.0,1.0,81,0.00,,CLR,0.00,VWS V14.01,2013-05-14 05:48:00,
2013-05-14 01:49:00,40.0,34.7,30.21,East,86,1.0,1.0,81,0.00,,CLR,0.00,VWS V14.01,2013-05-14 05:49:00,
2013-05-14 01:50:00,40.0,34.7,30.20,East,86,0.0,1.0,81,0.00,,CLR,0.00,VWS V14.01,2013-05-14 05:50:00,
2013-05-14 01:51:00,40.0,34.7,30.20,East,86,0.0,0.0,81,0.00,,CLR,0.00,VWS V14.01,2013-05-14 05:51:00,
2013-05-14 01:52:00,40.0,34.3,30.20,East,86,1.0,1.0,80,0.00,,CLR,0.00,VWS V14.01,2013-05-14 05:52:00,
2013-05-14 01:53:00,39.9,34.2,30.20,East,86,0.0,1.0,80,0.00,,CLR,0.00,VWS V14.01,2013-05-14 05:53:00,
2013-05-14 01:54:00,39.9,34.2,30.20,East,86,0.0,0.0,80,0.00,,CLR,0.00,VWS V14.01,2013-05-14 05:54:00,
2013-05-14 01:55:00,39.8,34.1,30.20,East,86,0.0,0.0,80,0.00,,CLR,0.00,VWS V14.01,2013-05-14 05:55:00,
2013-05-14 01:56:00,39.8,34.1,30.20,East,86,0.0,0.0,80,0.00,,CLR,0.00,VWS V14.01,2013-05-14 05:56:00,
2013-05-14 01:57:00,39.7,34.4,30.20,East,86,0.0,1.0,81,0.00,,CLR,0.00,VWS V14.01,2013-05-14 05:57:00,
2013-05-14 01:58:00,39.7,34.4,30.20,East,86,0.0,1.0,81,0.00,,CLR,0.00,VWS V14.01,2013-05-14 05:58:00,
2013-05-14 01:59:00,39.7,34.4,30.20,East,86,0.0,0.0,81,0.00,,CLR,0.00,VWS V14.01,2013-05-14 05:59:00,
2013-05-14 02:00:00,39.7,34.4,30.20,East,92,0.0,1.0,81,0.00,,CLR,0.00,VWS V14.01,2013-05-14 06:00:00,
2013-05-14 02:01:00,39.7,34.4,30.20,East,91,0.0,1.0,81,0.00,,CLR,0.00,VWS V14.01,2013-05-14 06:01:00,
2013-05-14 02:02:00,39.7,34.4,30.20,East,91,0.0,0.0,81,0.00,,CLR,0.00,VWS V14.01,2013-05-14 06:02:00,
2013-05-14 02:03:00,39.6,34.3,30.20,East,92,0.0,0.0,81,0.00,,CLR,0.00,VWS V14.01,2013-05-14 06:03:00,
2013-05-14 02:04:00,39.6,34.3,30.20,East,91,0.0,0.0,81,0.00,,CLR,0.00,VWS V14.01,2013-05-14 06:04:00,
2013-05-14 02:05:00,39.6,34.3,30.20,ENE,72,1.0,1.0,81,0.00,,CLR,0.00,VWS V14.01,2013-05-14 06:05:00,
2013-05-14 02:06:00,39.6,34.3,30.20,ENE,72,1.0,1.0,81,0.00,,CLR,0.00,VWS V14.01,2013-05-14 06:06:00,
2013-05-14 02:07:00,39.6,34.3,30.20,ENE,77,0.0,1.0,81,0.00,,CLR,0.00,VWS V14.01,2013-05-14 06:07:00,
2013-05-14 02:08:00,39.5,34.2,30.20,ENE,77,1.0,1.0,81,0.00,,CLR,0.00,VWS V14.01,2013-05-14 06:08:00,
2013-05-14 02:09:00,39.5,34.2,30.20,ENE,77,0.0,1.0,81,0.00,,CLR,0.00,VWS V14.01,2013-05-14 06:09:00,
2013-05-14 02:10:00,39.5,34.2,30.20,ENE,76,1.0,1.0,81,0.00,,CLR,0.00,VWS V14.01,2013-05-14 06:10:00,
2013-05-14 02:11:00,39.5,34.2,30.20,East,80,0.0,1.0,81,0.00,,CLR,0.00,VWS V14.01,2013-05-14 06:11:00,
2013-05-14 02:12:00,39.4,34.1,30.20,East,80,0.0,1.0,81,0.00,,CLR,0.00,VWS V14.01,2013-05-14 06:12:00,
2013-05-14 02:13:00,39.4,34.1,30.20,East,82,0.0,1.0,81,0.00,,CLR,0.00,VWS V14.01,2013-05-14 06:13:00,
2013-05-14 02:14:00,39.4,34.4,30.20,East,82,0.0,0.0,82,0.00,,CLR,0.00,VWS V14.01,2013-05-14 06:14:00,
2013-05-14 02:15:00,39.4,34.4,30.20,East,82,0.0,0.0,82,0.00,,CLR,0.00,VWS V14.01,2013-05-14 06:15:00,
2013-05-14 02:16:00,39.4,34.4,30.20,East,89,0.0,0.0,82,0.00,,CLR,0.00,VWS V14.01,2013-05-14 06:16:00,
2013-05-14 02:17:00,39.4,34.4,30.20,East,89,0.0,0.0,82,0.00,,CLR,0.00,VWS V14.01,2013-05-14 06:17:00,
2013-05-14 02:18:00,39.4,34.4,30.20,East,89,0.0,0.0,82,0.00,,CLR,0.00,VWS V14.01,2013-05-14 06:18:00,
2013-05-14 02:19:00,39.3,34.3,30.20,East,89,0.0,0.0,82,0.00,,CLR,0.00,VWS V14.01,2013-05-14 06:19:00,
2013-05-14 02:20:00,39.3,34.3,30.20,East,89,0.0,1.0,82,0.00,,CLR,0.00,VWS V14.01,2013-05-14 06:20:00,
2013-05-14 02:21:00,39.3,34.3,30.20,East,89,0.0,1.0,82,0.00,,CLR,0.00,VWS V14.01,2013-05-14 06:21:00,
2013-05-14 02:22:00,39.2,34.2,30.20,East,97,0.0,1.0,82,0.00,,CLR,0.00,VWS V14.01,2013-05-14 06:22:00,
2013-05-14 02:23:00,39.2,34.2,30.20,East,97,0.0,1.0,82,0.00,,CLR,0.00,VWS V14.01,2013-05-14 06:23:00,
2013-05-14 02:24:00,39.2,34.2,30.19,East,97,0.0,1.0,82,0.00,,CLR,0.00,VWS V14.01,2013-05-14 06:24:00,
2013-05-14 02:25:00,39.1,34.1,30.19,East,98,0.0,0.0,82,0.00,,CLR,0.00,VWS V14.01,2013-05-14 06:25:00,
2013-05-14 02:26:00,39.1,34.1,30.19,East,97,0.0,1.0,82,0.00,,CLR,0.00,VWS V14.01,2013-05-14 06:26:00,
2013-05-14 02:27:00,39.1,34.1,30.19,East,98,0.0,0.0,82,0.00,,CLR,0.00,VWS V14.01,2013-05-14 06:27:00,
2013-05-14 02:28:00,39.1,34.1,30.19,East,97,0.0,1.0,82,0.00,,CLR,0.00,VWS V14.01,2013-05-14 06:28:00,
2013-05-14 02:29:00,39.1,34.1,30.19,East,97,0.0,1.0,82,0.00,,CLR,0.00,VWS V14.01,2013-05-14 06:29:00,
2013-05-14 02:30:00,39.1,34.1,30.19,East,98,0.0,1.0,82,0.00,,CLR,0.00,VWS V14.01,2013-05-14 06:30:00,
2013-05-14 02:31:00,39.1,34.1,30.19,East,98,0.0,1.0,82,0.00,,CLR,0.00,VWS V14.01,2013-05-14 06:31:00,
2013-05-14 02:32:00,39.1,34.1,30.19,East,98,0.0,1.0,82,0.00,,CLR,0.00,VWS V14.01,2013-05-14 06:32:00,
2013-05-14 02:33:00,39.1,34.1,30.19,East,98,0.0,1.0,82,0.00,,CLR,0.00,VWS V14.01,2013-05-14 06:33:00,
2013-05-14 02:34:00,39.1,34.1,30.19,East,97,0.0,0.0,82,0.00,,CLR,0.00,VWS V14.01,2013-05-14 06:34:00,
2013-05-14 02:35:00,39.1,34.1,30.19,East,98,0.0,0.0,82,0.00,,CLR,0.00,VWS V14.01,2013-05-14 06:35:00,
2013-05-14 02:36:00,39.0,34.0,30.19,East,98,0.0,0.0,82,0.00,,CLR,0.00,VWS V14.01,2013-05-14 06:36:00,
2013-05-14 02:37:00,39.0,34.0,30.19,East,97,0.0,1.0,82,0.00,,CLR,0.00,VWS V14.01,2013-05-14 06:37:00,
2013-05-14 02:38:00,39.0,34.0,30.19,East,98,0.0,0.0,82,0.00,,CLR,0.00,VWS V14.01,2013-05-14 06:38:00,
2013-05-14 02:39:00,39.0,34.0,30.19,East,97,0.0,1.0,82,0.00,,CLR,0.00,VWS V14.01,2013-05-14 06:39:00,
2013-05-14 02:40:00,39.0,34.0,30.20,East,97,0.0,0.0,82,0.00,,CLR,0.00,VWS V14.01,2013-05-14 06:40:00,
2013-05-14 02:41:00,38.9,33.9,30.19,East,97,0.0,0.0,82,0.00,,CLR,0.00,VWS V14.01,2013-05-14 06:41:00,
2013-05-14 02:42:00,38.9,34.2,30.20,East,97,0.0,0.0,83,0.00,,CLR,0.00,VWS V14.01,2013-05-14 06:42:00,
2013-05-14 02:43:00,38.9,34.2,30.20,East,97,0.0,0.0,83,0.00,,CLR,0.00,VWS V14.01,2013-05-14 06:43:00,
2013-05-14 02:44:00,38.9,34.2,30.19,East,97,0.0,0.0,83,0.00,,CLR,0.00,VWS V14.01,2013-05-14 06:44:00,
2013-05-14 02:45:00,38.8,34.1,30.19,East,98,0.0,0.0,83,0.00,,CLR,0.00,VWS V14.01,2013-05-14 06:45:00,
2013-05-14 02:46:00,38.8,34.1,30.19,East,97,0.0,0.0,83,0.00,,CLR,0.00,VWS V14.01,2013-05-14 06:46:00,
2013-05-14 02:47:00,38.8,34.1,30.19,East,97,0.0,0.0,83,0.00,,CLR,0.00,VWS V14.01,2013-05-14 06:47:00,
2013-05-14 02:48:00,38.8,34.1,30.19,East,97,0.0,0.0,83,0.00,,CLR,0.00,VWS V14.01,2013-05-14 06:48:00,
2013-05-14 02:49:00,38.8,34.1,30.19,East,97,0.0,0.0,83,0.00,,CLR,0.00,VWS V14.01,2013-05-14 06:49:00,
2013-05-14 02:50:00,38.8,34.1,30.19,East,97,0.0,0.0,83,0.00,,CLR,0.00,VWS V14.01,2013-05-14 06:50:00,
2013-05-14 02:51:00,38.8,34.1,30.19,East,97,1.0,1.0,83,0.00,,CLR,0.00,VWS V14.01,2013-05-14 06:51:00,
2013-05-14 02:52:00,38.8,34.1,30.19,East,97,0.0,1.0,83,0.00,,CLR,0.00,VWS V14.01,2013-05-14 06:52:00,
2013-05-14 02:53:00,38.8,34.1,30.19,East,98,0.0,1.0,83,0.00,,CLR,0.00,VWS V14.01,2013-05-14 06:53:00,
2013-05-14 02:54:00,38.7,34.0,30.19,East,97,0.0,1.0,83,0.00,,CLR,0.00,VWS V14.01,2013-05-14 06:54:00,
2013-05-14 02:55:00,38.7,34.0,30.19,East,98,0.0,1.0,83,0.00,,CLR,0.00,VWS V14.01,2013-05-14 06:55:00,
2013-05-14 02:56:00,38.8,34.1,30.19,East,97,0.0,1.0,83,0.00,,CLR,0.00,VWS V14.01,2013-05-14 06:56:00,
2013-05-14 02:57:00,38.8,34.1,30.19,East,97,0.0,0.0,83,0.00,,CLR,0.00,VWS V14.01,2013-05-14 06:57:00,
2013-05-14 02:58:00,38.7,34.0,30.19,East,94,1.0,1.0,83,0.00,,CLR,0.00,VWS V14.01,2013-05-14 06:58:00,
2013-05-14 02:59:00,38.8,34.1,30.19,East,93,1.0,1.0,83,0.00,,CLR,0.00,VWS V14.01,2013-05-14 06:59:00,
2013-05-14 03:00:00,38.8,34.1,30.19,East,93,1.0,1.0,83,0.00,,CLR,0.00,VWS V14.01,2013-05-14 07:00:00,
2013-05-14 03:01:00,38.8,34.1,30.19,East,98,1.0,1.0,83,0.00,,CLR,0.00,VWS V14.01,2013-05-14 07:01:00,
2013-05-14 03:02:00,38.8,34.1,30.19,East,98,1.0,2.0,83,0.00,,CLR,0.00,VWS V14.01,2013-05-14 07:02:00,
2013-05-14 03:03:00,38.8,34.1,30.19,East,94,2.0,2.0,83,0.00,,CLR,0.00,VWS V14.01,2013-05-14 07:03:00,
2013-05-14 03:04:00,38.9,34.2,30.19,East,94,0.0,2.0,83,0.00,,CLR,0.00,VWS V14.01,2013-05-14 07:04:00,
2013-05-14 03:05:00,38.9,34.2,30.19,East,91,1.0,2.0,83,0.00,,CLR,0.00,VWS V14.01,2013-05-14 07:05:00,
2013-05-14 03:06:00,38.8,34.1,30.19,ESE,102,1.0,1.0,83,0.00,,CLR,0.00,VWS V14.01,2013-05-14 07:06:00,
2013-05-14 03:07:00,38.8,34.1,30.19,East,101,0.0,1.0,83,0.00,,CLR,0.00,VWS V14.01,2013-05-14 07:07:00,
2013-05-14 03:08:00,38.8,34.1,30.19,East,96,1.0,2.0,83,0.00,,CLR,0.00,VWS V14.01,2013-05-14 07:08:00,
2013-05-14 03:09:00,38.8,34.1,30.19,East,80,1.0,2.0,83,0.00,,CLR,0.00,VWS V14.01,2013-05-14 07:09:00,
2013-05-14 03:10:00,38.8,34.1,30.19,East,82,2.0,2.0,83,0.00,,CLR,0.00,VWS V14.01,2013-05-14 07:10:00,
2013-05-14 03:11:00,38.8,34.1,30.19,East,82,1.0,2.0,83,0.00,,CLR,0.00,VWS V14.01,2013-05-14 07:11:00,
2013-05-14 03:12:00,38.8,34.1,30.19,East,84,1.0,2.0,83,0.00,,CLR,0.00,VWS V14.01,2013-05-14 07:12:00,
2013-05-14 03:13:00,38.7,34.0,30.19,East,87,1.0,2.0,83,0.00,,CLR,0.00,VWS V14.01,2013-05-14 07:13:00,
2013-05-14 03:14:00,38.7,34.0,30.19,East,87,1.0,1.0,83,0.00,,CLR,0.00,VWS V14.01,2013-05-14 07:14:00,
2013-05-14 03:15:00,38.7,34.0,30.19,East,91,1.0,1.0,83,0.00,,CLR,0.00,VWS V14.01,2013-05-14 07:15:00,
2013-05-14 03:16:00,38.6,34.2,30.19,East,90,0.0,1.0,84,0.00,,CLR,0.00,VWS V14.01,2013-05-14 07:16:00,
2013-05-14 03:17:00,38.6,34.2,30.19,East,96,0.0,1.0,84,0.00,,CLR,0.00,VWS V14.01,2013-05-14 07:17:00,
2013-05-14 03:18:00,38.6,34.2,30.19,ESE,111,1.0,1.0,84,0.00,,CLR,0.00,VWS V14.01,2013-05-14 07:18:00,
2013-05-14 03:19:00,38.6,34.2,30.19,East,96,2.0,2.0,84,0.00,,CLR,0.00,VWS V14.01,2013-05-14 07:19:00,
2013-05-14 03:20:00,38.6,34.2,30.19,East,91,1.0,2.0,84,0.00,,CLR,0.00,VWS V14.01,2013-05-14 07:20:00,
2013-05-14 03:21:00,38.6,34.2,30.19,East,89,2.0,2.0,84,0.00,,CLR,0.00,VWS V14.01,2013-05-14 07:21:00,
2013-05-14 03:22:00,38.6,34.2,30.19,East,84,2.0,3.0,84,0.00,,CLR,0.00,VWS V14.01,2013-05-14 07:22:00,
2013-05-14 03:23:00,38.6,34.2,30.19,East,80,2.0,3.0,84,0.00,,CLR,0.00,VWS V14.01,2013-05-14 07:23:00,
2013-05-14 03:24:00,38.6,34.2,30.19,East,90,1.0,3.0,84,0.00,,CLR,0.00,VWS V14.01,2013-05-14 07:24:00,
2013-05-14 03:25:00,38.7,34.3,30.19,East,86,1.0,3.0,84,0.00,,CLR,0.00,VWS V14.01,2013-05-14 07:25:00,
2013-05-14 03:26:00,38.7,34.3,30.19,East,79,1.0,2.0,84,0.00,,CLR,0.00,VWS V14.01,2013-05-14 07:26:00,
2013-05-14 03:27:00,38.6,34.2,30.19,East,89,0.0,1.0,84,0.00,,CLR,0.00,VWS V14.01,2013-05-14 07:27:00,
2013-05-14 03:28:00,38.7,34.3,30.19,East,89,0.0,1.0,84,0.00,,CLR,0.00,VWS V14.01,2013-05-14 07:28:00,
2013-05-14 03:29:00,38.6,34.2,30.19,ENE,77,2.0,2.0,84,0.00,,CLR,0.00,VWS V14.01,2013-05-14 07:29:00,
2013-05-14 03:30:00,38.7,34.3,30.19,ENE,72,2.0,2.0,84,0.00,,CLR,0.00,VWS V14.01,2013-05-14 07:30:00,
2013-05-14 03:31:00,38.7,34.3,30.19,East,85,2.0,3.0,84,0.00,,CLR,0.00,VWS V14.01,2013-05-14 07:31:00,
2013-05-14 03:32:00,38.7,34.3,30.19,East,86,2.0,3.0,84,0.00,,CLR,0.00,VWS V14.01,2013-05-14 07:32:00,
2013-05-14 03:33:00,38.8,34.4,30.19,East,79,2.0,3.0,84,0.00,,CLR,0.00,VWS V14.01,2013-05-14 07:33:00,
2013-05-14 03:34:00,38.9,34.5,30.19,East,98,2.0,3.0,84,0.00,,CLR,0.00,VWS V14.01,2013-05-14 07:34:00,
2013-05-14 03:35:00,38.9,34.5,30.19,East,85,1.0,3.0,84,0.00,,CLR,0.00,VWS V14.01,2013-05-14 07:35:00,
2013-05-14 03:36:00,38.9,34.5,30.19,ENE,58,1.0,2.0,84,0.00,,CLR,0.00,VWS V14.01,2013-05-14 07:36:00,
2013-05-14 03:37:00,39.0,34.6,30.19,East,87,2.0,3.0,84,0.00,,CLR,0.00,VWS V14.01,2013-05-14 07:37:00,
2013-05-14 03:38:00,39.1,34.4,30.19,ESE,107,1.0,3.0,83,0.00,,CLR,0.00,VWS V14.01,2013-05-14 07:38:00,
2013-05-14 03:39:00,39.1,34.4,30.19,ENE,78,2.0,3.0,83,0.00,,CLR,0.00,VWS V14.01,2013-05-14 07:39:00,
2013-05-14 03:40:00,39.2,34.5,30.19,East,85,2.0,3.0,83,0.00,,CLR,0.00,VWS V14.01,2013-05-14 07:40:00,
2013-05-14 03:41:00,39.3,34.6,30.19,ENE,77,1.0,2.0,83,0.00,,CLR,0.00,VWS V14.01,2013-05-14 07:41:00,
2013-05-14 03:42:00,39.3,34.6,30.19,ENE,66,1.0,2.0,83,0.00,,CLR,0.00,VWS V14.01,2013-05-14 07:42:00,
2013-05-14 03:43:00,39.3,34.6,30.19,ESE,117,2.0,2.0,83,0.00,,CLR,0.00,VWS V14.01,2013-05-14 07:43:00,
2013-05-14 03:44:00,39.4,34.7,30.19,ESE,105,3.0,3.0,83,0.00,,CLR,0.00,VWS V14.01,2013-05-14 07:44:00,
2013-05-14 03:45:00,39.5,34.8,30.19,ESE,108,2.0,3.0,83,0.00,,CLR,0.00,VWS V14.01,2013-05-14 07:45:00,
2013-05-14 03:46:00,39.5,34.8,30.19,ESE,104,1.0,2.0,83,0.00,,CLR,0.00,VWS V14.01,2013-05-14 07:46:00,
2013-05-14 03:47:00,39.5,34.8,30.19,ESE,114,2.0,2.0,83,0.00,,CLR,0.00,VWS V14.01,2013-05-14 07:47:00,
2013-05-14 03:48:00,39.6,34.9,30.18,ESE,118,2.0,2.0,83,0.00,,CLR,0.00,VWS V14.01,2013-05-14 07:48:00,
2013-05-14 03:49:00,39.6,34.9,30.19,SE,124,2.0,2.0,83,0.00,,CLR,0.00,VWS V14.01,2013-05-14 07:49:00,
2013-05-14 03:50:00,39.6,34.9,30.19,ESE,111,2.0,2.0,83,0.00,,CLR,0.00,VWS V14.01,2013-05-14 07:50:00,
2013-05-14 03:51:00,39.6,34.9,30.19,ESE,118,2.0,3.0,83,0.00,,CLR,0.00,VWS V14.01,2013-05-14 07:51:00,
2013-05-14 03:52:00,39.7,35.0,30.19,East,95,2.0,3.0,83,0.00,,CLR,0.00,VWS V14.01,2013-05-14 07:52:00,
2013-05-14 03:53:00,39.7,34.7,30.19,East,98,2.0,3.0,82,0.00,,CLR,0.00,VWS V14.01,2013-05-14 07:53:00,
2013-05-14 03:54:00,39.7,34.7,30.19,East,97,2.0,2.0,82,0.00,,CLR,0.00,VWS V14.01,2013-05-14 07:54:00,
2013-05-14 03:55:00,39.8,34.8,30.19,ESE,105,2.0,2.0,82,0.00,,CLR,0.00,VWS V14.01,2013-05-14 07:55:00,
2013-05-14 03:56:00,39.8,34.8,30.19,ESE,104,2.0,2.0,82,0.00,,CLR,0.00,VWS V14.01,2013-05-14 07:56:00,
2013-05-14 03:57:00,39.8,34.8,30.19,East,99,2.0,2.0,82,0.00,,CLR,0.00,VWS V14.01,2013-05-14 07:57:00,
2013-05-14 03:58:00,39.9,34.9,30.19,East,90,2.0,2.0,82,0.00,,CLR,0.00,VWS V14.01,2013-05-14 07:58:00,
2013-05-14 03:59:00,39.9,34.9,30.19,East,95,2.0,3.0,82,0.00,,CLR,0.00,VWS V14.01,2013-05-14 07:59:00,
2013-05-14 04:00:00,39.9,34.9,30.19,ESE,117,1.0,2.0,82,0.00,,CLR,0.00,VWS V14.01,2013-05-14 08:00:00,
2013-05-14 04:01:00,39.9,34.9,30.19,ESE,115,0.0,3.0,82,0.00,,CLR,0.00,VWS V14.01,2013-05-14 08:01:00,
2013-05-14 04:02:00,40.0,35.0,30.19,East,100,2.0,2.0,82,0.00,,CLR,0.00,VWS V14.01,2013-05-14 08:02:00,
2013-05-14 04:03:00,40.0,35.0,30.19,ESE,113,2.0,2.0,82,0.00,,CLR,0.00,VWS V14.01,2013-05-14 08:03:00,
2013-05-14 04:04:00,40.0,35.0,30.19,SE,130,1.0,3.0,82,0.00,,CLR,0.00,VWS V14.01,2013-05-14 08:04:00,
2013-05-14 04:05:00,40.1,35.1,30.19,ESE,103,1.0,3.0,82,0.00,,CLR,0.00,VWS V14.01,2013-05-14 08:05:00,
2013-05-14 04:06:00,40.0,35.0,30.19,ESE,117,2.0,3.0,82,0.00,,CLR,0.00,VWS V14.01,2013-05-14 08:06:00,
2013-05-14 04:07:00,40.1,35.1,30.19,ESE,111,2.0,3.0,82,0.00,,CLR,0.00,VWS V14.01,2013-05-14 08:07:00,
2013-05-14 04:08:00,40.1,35.1,30.19,East,89,2.0,4.0,82,0.00,,CLR,0.00,VWS V14.01,2013-05-14 08:08:00,
2013-05-14 04:09:00,40.1,35.1,30.19,ESE,108,4.0,4.0,82,0.00,,CLR,0.00,VWS V14.01,2013-05-14 08:09:00,
2013-05-14 04:10:00,40.1,35.1,30.19,ESE,103,2.0,4.0,82,0.00,,CLR,0.00,VWS V14.01,2013-05-14 08:10:00,
2013-05-14 04:11:00,40.1,35.1,30.19,East,94,3.0,3.0,82,0.00,,CLR,0.00,VWS V14.01,2013-05-14 08:11:00,
2013-05-14 04:12:00,40.2,35.2,30.19,ESE,108,3.0,5.0,82,0.00,,CLR,0.00,VWS V14.01,2013-05-14 08:12:00,
2013-05-14 04:13:00,40.2,35.2,30.19,East,82,2.0,4.0,82,0.00,,CLR,0.00,VWS V14.01,2013-05-14 08:13:00,
2013-05-14 04:14:00,40.2,35.2,30.19,East,86,2.0,2.0,82,0.00,,CLR,0.00,VWS V14.01,2013-05-14 08:14:00,
2013-05-14 04:15:00,40.2,35.2,30.18,ESE,121,2.0,3.0,82,0.00,,CLR,0.00,VWS V14.01,2013-05-14 08:15:00,
2013-05-14 04:16:00,40.2,35.5,30.18,ESE,103,3.0,3.0,83,0.00,,CLR,0.00,VWS V14.01,2013-05-14 08:16:00,
2013-05-14 04:17:00,40.2,35.5,30.18,ESE,114,1.0,3.0,83,0.00,,CLR,0.00,VWS V14.01,2013-05-14 08:17:00,
2013-05-14 04:18:00,40.1,35.4,30.18,East,98,1.0,3.0,83,0.00,,CLR,0.00,VWS V14.01,2013-05-14 08:18:00,
2013-05-14 04:19:00,40.2,35.5,30.18,ESE,110,1.0,2.0,83,0.00,,CLR,0.00,VWS V14.01,2013-05-14 08:19:00,
2013-05-14 04:20:00,40.2,35.5,30.18,ESE,104,1.0,2.0,83,0.00,,CLR,0.00,VWS V14.01,2013-05-14 08:20:00,
2013-05-14 04:21:00,40.1,35.4,30.18,ESE,111,2.0,2.0,83,0.00,,CLR,0.00,VWS V14.01,2013-05-14 08:21:00,
2013-05-14 04:22:00,40.1,35.4,30.18,ESE,120,1.0,2.0,83,0.00,,CLR,0.00,VWS V14.01,2013-05-14 08:22:00,
2013-05-14 04:23:00,40.1,35.4,30.18,ESE,111,1.0,2.0,83,0.00,,CLR,0.00,VWS V14.01,2013-05-14 08:23:00,
2013-05-14 04:24:00,40.1,35.4,30.18,ESE,102,0.0,1.0,83,0.00,,CLR,0.00,VWS V14.01,2013-05-14 08:24:00,
2013-05-14 04:25:00,40.1,35.4,30.18,ESE,102,0.0,0.0,83,0.00,,CLR,0.00,VWS V14.01,2013-05-14 08:25:00,
2013-05-14 04:26:00,40.1,35.4,30.18,ESE,102,0.0,1.0,83,0.00,,CLR,0.00,VWS V14.01,2013-05-14 08:26:00,
2013-05-14 04:27:00,40.1,35.4,30.18,ESE,102,1.0,1.0,83,0.00,,CLR,0.00,VWS V14.01,2013-05-14 08:27:00,
2013-05-14 04:28:00,40.0,35.3,30.18,ESE,102,0.0,1.0,83,0.00,,CLR,0.00,VWS V14.01,2013-05-14 08:28:00,
2013-05-14 04:29:00,40.0,35.3,30.18,ESE,102,0.0,0.0,83,0.00,,CLR,0.00,VWS V14.01,2013-05-14 08:29:00,
2013-05-14 04:30:00,40.0,35.6,30.18,ESE,102,0.0,0.0,84,0.00,,CLR,0.00,VWS V14.01,2013-05-14 08:30:00,
2013-05-14 04:31:00,40.0,35.6,30.18,East,101,0.0,0.0,84,0.00,,SCT120,0.00,VWS V14.01,2013-05-14 08:31:00,
2013-05-14 04:32:00,39.9,35.5,30.18,East,101,0.0,0.0,84,0.00,,CLR,0.00,VWS V14.01,2013-05-14 08:32:00,
2013-05-14 04:33:00,39.9,35.5,30.18,ESE,102,0.0,0.0,84,0.00,,CLR,0.00,VWS V14.01,2013-05-14 08:33:00,
2013-05-14 04:34:00,39.9,35.5,30.18,ESE,102,0.0,1.0,84,0.00,,CLR,0.00,VWS V14.01,2013-05-14 08:34:00,
2013-05-14 04:35:00,39.9,35.5,30.18,ESE,102,0.0,0.0,84,0.00,,CLR,0.00,VWS V14.01,2013-05-14 08:35:00,
2013-05-14 04:36:00,39.9,35.5,30.18,ESE,102,0.0,0.0,84,0.00,,SCT120,0.00,VWS V14.01,2013-05-14 08:36:00,
2013-05-14 04:37:00,39.9,35.5,30.18,East,101,0.0,0.0,84,0.00,,CLR,0.00,VWS V14.01,2013-05-14 08:37:00,
2013-05-14 04:38:00,39.9,35.5,30.18,East,101,0.0,0.0,84,0.00,,CLR,0.00,VWS V14.01,2013-05-14 08:38:00,
2013-05-14 04:39:00,39.9,35.5,30.18,East,79,1.0,1.0,84,0.00,,CLR,0.00,VWS V14.01,2013-05-14 08:39:00,
2013-05-14 04:40:00,39.9,35.5,30.18,ENE,75,1.0,2.0,84,0.00,,CLR,0.00,VWS V14.01,2013-05-14 08:40:00,
2013-05-14 04:41:00,39.9,35.5,30.19,ENE,75,1.0,2.0,84,0.00,,SCT120,0.00,VWS V14.01,2013-05-14 08:41:00,
2013-05-14 04:42:00,39.9,35.5,30.19,ENE,78,2.0,2.0,84,0.00,,CLR,0.00,VWS V14.01,2013-05-14 08:42:00,
2013-05-14 04:43:00,39.9,35.5,30.19,East,87,0.0,2.0,84,0.00,,CLR,0.00,VWS V14.01,2013-05-14 08:43:00,
2013-05-14 04:44:00,39.9,35.5,30.18,East,86,1.0,2.0,84,0.00,,CLR,0.00,VWS V14.01,2013-05-14 08:44:00,
2013-05-14 04:45:00,39.9,35.5,30.18,East,86,0.0,2.0,84,0.00,,CLR,0.00,VWS V14.01,2013-05-14 08:45:00,
2013-05-14 04:46:00,39.9,35.5,30.19,East,86,1.0,1.0,84,0.00,,SCT120,0.00,VWS V14.01,2013-05-14 08:46:00,
2013-05-14 04:47:00,40.0,35.6,30.18,ENE,73,2.0,2.0,84,0.00,,CLR,0.00,VWS V14.01,2013-05-14 08:47:00,
2013-05-14 04:48:00,40.0,35.6,30.18,East,85,1.0,2.0,84,0.00,,CLR,0.00,VWS V14.01,2013-05-14 08:48:00,
2013-05-14 04:49:00,40.0,35.6,30.18,East,84,1.0,1.0,84,0.00,,CLR,0.00,VWS V14.01,2013-05-14 08:49:00,
2013-05-14 04:50:00,40.0,35.6,30.18,East,85,0.0,1.0,84,0.00,,CLR,0.00,VWS V14.01,2013-05-14 08:50:00,
2013-05-14 04:51:00,40.0,35.6,30.18,East,85,0.0,0.0,84,0.00,,SCT120,0.00,VWS V14.01,2013-05-14 08:51:00,
2013-05-14 04:52:00,40.0,35.6,30.18,East,83,0.0,1.0,84,0.00,,CLR,0.00,VWS V14.01,2013-05-14 08:52:00,
2013-05-14 04:53:00,40.1,35.7,30.18,East,83,0.0,1.0,84,0.00,,CLR,0.00,VWS V14.01,2013-05-14 08:53:00,
2013-05-14 04:54:00,40.1,35.7,30.18,East,84,0.0,1.0,84,0.00,,CLR,0.00,VWS V14.01,2013-05-14 08:54:00,
2013-05-14 04:55:00,40.1,35.7,30.18,East,83,1.0,1.0,84,0.00,,CLR,0.00,VWS V14.01,2013-05-14 08:55:00,
2013-05-14 04:56:00,40.1,35.7,30.18,ENE,71,2.0,2.0,84,0.00,,SCT120,0.00,VWS V14.01,2013-05-14 08:56:00,
2013-05-14 04:57:00,40.1,35.7,30.18,East,82,1.0,2.0,84,0.00,,CLR,0.00,VWS V14.01,2013-05-14 08:57:00,
2013-05-14 04:58:00,40.2,35.8,30.18,East,82,0.0,2.0,84,0.00,,CLR,0.00,VWS V14.01,2013-05-14 08:58:00,
2013-05-14 04:59:00,40.2,35.8,30.18,East,83,0.0,0.0,84,0.00,,CLR,0.00,VWS V14.01,2013-05-14 08:59:00,
2013-05-14 05:00:00,40.2,35.5,30.18,East,91,1.0,1.0,83,0.00,,CLR,0.00,VWS V14.01,2013-05-14 09:00:00,
2013-05-14 05:01:00,40.2,35.5,30.18,ENE,72,1.0,1.0,83,0.00,,CLR,0.00,VWS V14.01,2013-05-14 09:01:00,
2013-05-14 05:02:00,40.2,35.5,30.17,East,89,1.0,1.0,83,0.00,,CLR,0.00,VWS V14.01,2013-05-14 09:02:00,
2013-05-14 05:03:00,40.3,35.6,30.17,East,83,0.0,1.0,83,0.00,,CLR,0.00,VWS V14.01,2013-05-14 09:03:00,
2013-05-14 05:04:00,40.3,35.6,30.18,East,83,0.0,1.0,83,0.00,,CLR,0.00,VWS V14.01,2013-05-14 09:04:00,
2013-05-14 05:05:00,40.3,35.6,30.18,East,83,0.0,0.0,83,0.00,,CLR,0.00,VWS V14.01,2013-05-14 09:05:00,
2013-05-14 05:06:00,40.3,35.6,30.18,East,89,0.0,1.0,83,0.00,,CLR,0.00,VWS V14.01,2013-05-14 09:06:00,
2013-05-14 05:07:00,40.4,35.7,30.18,East,84,0.0,1.0,83,0.00,,CLR,0.00,VWS V14.01,2013-05-14 09:07:00,
2013-05-14 05:08:00,40.4,35.7,30.17,ESE,110,1.0,1.0,83,0.00,,CLR,0.00,VWS V14.01,2013-05-14 09:08:00,
2013-05-14 05:09:00,40.4,35.7,30.17,East,90,1.0,1.0,83,0.00,,CLR,0.00,VWS V14.01,2013-05-14 09:09:00,
2013-05-14 05:10:00,40.4,35.7,30.17,ESE,105,1.0,1.0,83,0.00,,CLR,0.00,VWS V14.01,2013-05-14 09:10:00,
2013-05-14 05:11:00,40.4,35.7,30.18,East,82,1.0,1.0,83,0.00,,CLR,0.00,VWS V14.01,2013-05-14 09:11:00,
2013-05-14 05:12:00,40.5,35.8,30.18,East,85,0.0,1.0,83,0.00,,CLR,0.00,VWS V14.01,2013-05-14 09:12:00,
2013-05-14 05:13:00,40.5,35.8,30.18,East,84,0.0,0.0,83,0.00,,CLR,0.00,VWS V14.01,2013-05-14 09:13:00,
2013-05-14 05:14:00,40.5,35.8,30.18,East,79,1.0,1.0,83,0.00,,CLR,0.00,VWS V14.01,2013-05-14 09:14:00,
2013-05-14 05:15:00,40.5,35.8,30.17,East,79,1.0,1.0,83,0.00,,CLR,0.00,VWS V14.01,2013-05-14 09:15:00,
2013-05-14 05:16:00,40.6,35.8,30.18,ENE,72,1.0,1.0,83,0.00,,CLR,0.00,VWS V14.01,2013-05-14 09:16:00,
2013-05-14 05:17:00,40.6,35.8,30.18,East,101,1.0,2.0,83,0.00,,CLR,0.00,VWS V14.01,2013-05-14 09:17:00,
2013-05-14 05:18:00,40.6,35.5,30.18,East,86,1.0,2.0,82,0.00,,CLR,0.00,VWS V14.01,2013-05-14 09:18:00,
2013-05-14 05:19:00,40.6,35.5,30.18,East,94,2.0,2.0,82,0.00,,CLR,0.00,VWS V14.01,2013-05-14 09:19:00,
2013-05-14 05:20:00,40.7,35.6,30.18,East,87,1.0,2.0,82,0.00,,CLR,0.00,VWS V14.01,2013-05-14 09:20:00,
2013-05-14 05:21:00,40.7,35.6,30.18,East,91,1.0,1.0,82,0.00,,CLR,0.00,VWS V14.01,2013-05-14 09:21:00,
2013-05-14 05:22:00,40.7,35.6,30.17,East,98,1.0,2.0,82,0.00,,CLR,0.00,VWS V14.01,2013-05-14 09:22:00,
2013-05-14 05:23:00,40.7,35.6,30.18,East,86,1.0,2.0,82,0.00,,CLR,0.00,VWS V14.01,2013-05-14 09:23:00,
2013-05-14 05:24:00,40.7,35.6,30.17,East,85,2.0,2.0,82,0.00,,CLR,0.00,VWS V14.01,2013-05-14 09:24:00,
2013-05-14 05:25:00,40.7,35.6,30.18,East,93,1.0,2.0,82,0.00,,CLR,0.00,VWS V14.01,2013-05-14 09:25:00,
2013-05-14 05:26:00,40.7,35.6,30.17,East,87,1.0,2.0,82,0.00,,CLR,0.00,VWS V14.01,2013-05-14 09:26:00,
2013-05-14 05:27:00,40.7,35.6,30.17,East,93,1.0,2.0,82,0.00,,CLR,0.00,VWS V14.01,2013-05-14 09:27:00,
2013-05-14 05:28:00,40.7,35.6,30.17,East,84,1.0,2.0,82,0.00,,CLR,0.00,VWS V14.01,2013-05-14 09:28:00,
2013-05-14 05:29:00,40.7,35.6,30.17,ESE,118,0.0,2.0,82,0.00,,CLR,0.00,VWS V14.01,2013-05-14 09:29:00,
2013-05-14 05:30:00,40.7,35.6,30.17,ESE,118,0.0,1.0,82,0.00,,CLR,0.00,VWS V14.01,2013-05-14 09:30:00,
2013-05-14 05:31:00,40.7,35.6,30.17,ENE,73,1.0,1.0,82,0.00,,SCT120,0.00,VWS V14.01,2013-05-14 09:31:00,
2013-05-14 05:32:00,40.7,35.6,30.17,ENE,73,0.0,1.0,82,0.00,,CLR,0.00,VWS V14.01,2013-05-14 09:32:00,
2013-05-14 05:33:00,40.7,35.6,30.17,East,86,0.0,1.0,82,0.00,,CLR,0.00,VWS V14.01,2013-05-14 09:33:00,
2013-05-14 05:34:00,40.7,35.6,30.17,East,96,1.0,1.0,82,0.00,,CLR,0.00,VWS V14.01,2013-05-14 09:34:00,
2013-05-14 05:35:00,40.7,35.6,30.17,East,82,1.0,1.0,82,0.00,,CLR,0.00,VWS V14.01,2013-05-14 09:35:00,
2013-05-14 05:36:00,40.6,35.5,30.17,East,82,1.0,1.0,82,0.00,,SCT120,0.00,VWS V14.01,2013-05-14 09:36:00,
2013-05-14 05:37:00,40.6,35.5,30.17,East,82,0.0,1.0,82,0.00,,CLR,0.00,VWS V14.01,2013-05-14 09:37:00,
2013-05-14 05:38:00,40.6,35.5,30.17,East,82,0.0,0.0,82,0.00,,CLR,0.00,VWS V14.01,2013-05-14 09:38:00,
2013-05-14 05:39:00,40.6,35.5,30.17,East,82,1.0,1.0,82,0.00,,CLR,0.00,VWS V14.01,2013-05-14 09:39:00,
2013-05-14 05:40:00,40.5,35.5,30.17,East,82,0.0,1.0,82,0.00,,CLR,0.00,VWS V14.01,2013-05-14 09:40:00,
2013-05-14 05:41:00,40.5,35.5,30.17,East,84,0.0,1.0,82,0.00,,SCT120,0.00,VWS V14.01,2013-05-14 09:41:00,
2013-05-14 05:42:00,40.5,35.5,30.17,East,83,0.0,1.0,82,0.00,,CLR,0.00,VWS V14.01,2013-05-14 09:42:00,
2013-05-14 05:43:00,40.4,35.3,30.17,East,83,0.0,0.0,82,0.00,,CLR,0.00,VWS V14.01,2013-05-14 09:43:00,
2013-05-14 05:44:00,40.4,35.3,30.17,East,83,1.0,1.0,82,0.00,,CLR,0.00,VWS V14.01,2013-05-14 09:44:00,
2013-05-14 05:45:00,40.4,35.3,30.17,East,83,0.0,1.0,82,0.00,,CLR,0.00,VWS V14.01,2013-05-14 09:45:00,
2013-05-14 05:46:00,40.4,35.3,30.17,East,83,0.0,1.0,82,0.00,,SCT120,0.00,VWS V14.01,2013-05-14 09:46:00,
2013-05-14 05:47:00,40.3,35.2,30.17,East,83,0.0,0.0,82,0.00,,CLR,0.00,VWS V14.01,2013-05-14 09:47:00,
2013-05-14 05:48:00,40.3,35.6,30.17,East,83,0.0,1.0,83,0.00,,CLR,0.00,VWS V14.01,2013-05-14 09:48:00,
2013-05-14 05:49:00,40.3,35.6,30.17,East,84,1.0,1.0,83,0.00,,CLR,0.00,VWS V14.01,2013-05-14 09:49:00,
2013-05-14 05:50:00,40.2,35.5,30.17,East,84,0.0,1.0,83,0.00,,CLR,0.00,VWS V14.01,2013-05-14 09:50:00,
2013-05-14 05:51:00,40.2,35.5,30.17,East,84,0.0,1.0,83,0.00,,SCT120,0.00,VWS V14.01,2013-05-14 09:51:00,
2013-05-14 05:52:00,40.2,35.5,30.17,East,84,0.0,1.0,83,0.00,,CLR,0.00,VWS V14.01,2013-05-14 09:52:00,
2013-05-14 05:53:00,40.2,35.5,30.17,East,84,0.0,0.0,83,0.00,,CLR,0.00,VWS V14.01,2013-05-14 09:53:00,
2013-05-14 05:54:00,40.1,35.4,30.18,East,84,0.0,0.0,83,0.00,,CLR,0.00,VWS V14.01,2013-05-14 09:54:00,
2013-05-14 05:55:00,40.1,35.4,30.18,East,80,1.0,1.0,83,0.00,,CLR,0.00,VWS V14.01,2013-05-14 09:55:00,
2013-05-14 05:56:00,40.1,35.4,30.18,East,80,1.0,2.0,83,0.00,,SCT120,0.00,VWS V14.01,2013-05-14 09:56:00,
2013-05-14 05:57:00,40.1,35.4,30.18,ENE,78,0.0,2.0,83,0.00,,CLR,0.00,VWS V14.01,2013-05-14 09:57:00,
2013-05-14 05:58:00,40.1,35.4,30.17,ENE,77,1.0,1.0,83,0.00,,CLR,0.00,VWS V14.01,2013-05-14 09:58:00,
2013-05-14 05:59:00,40.1,35.4,30.17,ENE,77,0.0,1.0,83,0.00,,CLR,0.00,VWS V14.01,2013-05-14 09:59:00,
2013-05-14 06:00:00,40.1,35.4,30.17,East,89,1.0,2.0,83,0.00,,CLR,0.00,VWS V14.01,2013-05-14 10:00:00,
2013-05-14 06:01:00,40.1,35.4,30.17,East,89,1.0,2.0,83,0.00,,CLR,0.00,VWS V14.01,2013-05-14 10:01:00,
2013-05-14 06:02:00,40.1,35.4,30.17,East,89,2.0,2.0,83,0.00,,CLR,0.00,VWS V14.01,2013-05-14 10:02:00,
2013-05-14 06:03:00,40.1,35.4,30.17,East,98,1.0,2.0,83,0.00,,CLR,0.00,VWS V14.01,2013-05-14 10:03:00,
2013-05-14 06:04:00,40.1,35.4,30.17,East,90,2.0,2.0,83,0.00,,CLR,0.00,VWS V14.01,2013-05-14 10:04:00,
2013-05-14 06:05:00,40.0,35.3,30.17,ENE,77,1.0,2.0,83,0.00,,CLR,0.00,VWS V14.01,2013-05-14 10:05:00,
2013-05-14 06:14:00,39.7,35.0,30.17,ENE,68,1.0,1.0,83,0.00,,CLR,0.00,VWS V14.01,2013-05-14 10:14:00,
2013-05-14 06:19:00,39.6,35.2,30.17,East,82,0.0,1.0,84,0.00,,CLR,0.00,VWS V14.01,2013-05-14 10:19:00,
2013-05-14 06:24:00,39.7,35.3,30.17,East,82,0.0,1.0,84,0.00,,CLR,0.00,VWS V14.01,2013-05-14 10:24:00,
2013-05-14 06:29:00,40.0,35.6,30.18,NE,50,2.0,2.0,84,0.00,,CLR,0.00,VWS V14.01,2013-05-14 10:29:00,
2013-05-14 06:34:00,40.3,35.9,30.18,East,83,2.0,2.0,84,0.00,,BKN110,0.00,VWS V14.01,2013-05-14 10:34:00,
2013-05-14 06:39:00,40.6,35.8,30.18,East,79,1.0,1.0,83,0.00,,BKN110,0.00,VWS V14.01,2013-05-14 10:39:00,
2013-05-14 06:44:00,40.9,36.1,30.18,ENE,66,1.0,1.0,83,0.00,,BKN110,0.00,VWS V14.01,2013-05-14 10:44:00,
2013-05-14 06:49:00,41.2,36.1,30.18,NE,55,1.0,2.0,82,0.00,,OVC110,0.00,VWS V14.01,2013-05-14 10:49:00,
2013-05-14 06:54:00,41.6,36.2,30.18,East,97,1.0,1.0,81,0.00,,OVC110,0.00,VWS V14.01,2013-05-14 10:54:00,
2013-05-14 06:59:00,42.0,36.3,30.18,East,83,0.0,1.0,80,0.00,,OVC110,0.00,VWS V14.01,2013-05-14 10:59:00,
2013-05-14 07:04:00,42.3,36.3,30.19,ENE,77,0.0,1.0,79,0.00,,OVC110,0.00,VWS V14.01,2013-05-14 11:04:00,
2013-05-14 07:09:00,42.7,36.7,30.19,NE,53,2.0,3.0,79,0.00,,OVC110,0.00,VWS V14.01,2013-05-14 11:09:00,
2013-05-14 07:14:00,42.9,36.5,30.20,NE,38,0.0,1.0,78,0.00,,OVC110,0.00,VWS V14.01,2013-05-14 11:14:00,
2013-05-14 07:19:00,43.2,36.8,30.19,NE,43,0.0,0.0,78,0.00,,OVC110,0.00,VWS V14.01,2013-05-14 11:19:00,
2013-05-14 07:24:00,43.4,37.0,30.20,ENE,77,1.0,1.0,78,0.00,,OVC110,0.00,VWS V14.01,2013-05-14 11:24:00,
2013-05-14 07:29:00,43.6,37.2,30.20,ESE,102,1.0,1.0,78,0.00,,OVC110,0.00,VWS V14.01,2013-05-14 11:29:00,
2013-05-14 07:34:00,43.7,37.0,30.20,ESE,103,1.0,1.0,77,0.00,,OVC100,0.00,VWS V14.01,2013-05-14 11:34:00,
2013-05-14 07:39:00,43.9,37.2,30.19,East,91,1.0,1.0,77,0.00,,OVC100,0.00,VWS V14.01,2013-05-14 11:39:00,
2013-05-14 07:44:00,44.0,37.3,30.19,East,91,2.0,2.0,77,0.00,,OVC100,0.00,VWS V14.01,2013-05-14 11:44:00,
2013-05-14 07:49:00,44.1,37.7,30.19,East,84,2.0,2.0,78,0.00,,OVC100,0.00,VWS V14.01,2013-05-14 11:49:00,
2013-05-14 07:54:00,44.2,38.1,30.19,ENE,72,1.0,2.0,79,0.00,,OVC100,0.00,VWS V14.01,2013-05-14 11:54:00,
2013-05-14 07:59:00,44.3,37.9,30.19,ESE,102,0.0,2.0,78,0.00,,OVC100,0.00,VWS V14.01,2013-05-14 11:59:00,
2013-05-14 08:04:00,44.5,38.4,30.18,East,86,1.0,1.0,79,0.00,,OVC100,0.00,VWS V14.01,2013-05-14 12:04:00,
2013-05-14 08:09:00,44.7,38.3,30.19,East,81,1.0,1.0,78,0.00,,OVC100,0.00,VWS V14.01,2013-05-14 12:09:00,
2013-05-14 08:14:00,45.0,38.6,30.19,ENE,64,1.0,2.0,78,0.00,,OVC100,0.00,VWS V14.01,2013-05-14 12:14:00,
2013-05-14 08:19:00,45.2,38.8,30.19,ENE,70,0.0,0.0,78,0.00,,OVC100,0.00,VWS V14.01,2013-05-14 12:19:00,
2013-05-14 08:24:00,45.4,38.6,30.19,ENE,78,0.0,1.0,77,0.00,,OVC100,0.00,VWS V14.01,2013-05-14 12:24:00,
2013-05-14 08:29:00,45.7,38.6,30.20,ENE,77,0.0,0.0,76,0.00,,OVC100,0.00,VWS V14.01,2013-05-14 12:29:00,
2013-05-14 08:34:00,45.9,38.8,30.19,East,94,2.0,2.0,76,0.00,,OVC100,0.00,VWS V14.01,2013-05-14 12:34:00,
2013-05-14 08:39:00,46.2,38.7,30.19,ESE,108,1.0,1.0,75,0.00,,OVC100,0.00,VWS V14.01,2013-05-14 12:39:00,
2013-05-14 08:44:00,46.5,38.7,30.18,East,94,1.0,3.0,74,0.00,,OVC100,0.00,VWS V14.01,2013-05-14 12:44:00,
2013-05-14 08:49:00,46.9,38.7,30.18,ESE,104,3.0,3.0,73,0.00,,OVC090,0.00,VWS V14.01,2013-05-14 12:49:00,
2013-05-14 08:54:00,47.3,39.1,30.18,ESE,117,1.0,2.0,73,0.00,,OVC090,0.00,VWS V14.01,2013-05-14 12:54:00,
2013-05-14 08:59:00,47.9,38.6,30.18,SE,131,2.0,3.0,70,0.00,,OVC090,0.00,VWS V14.01,2013-05-14 12:59:00,
2013-05-14 09:04:00,48.4,38.3,30.18,ENE,70,0.0,3.0,68,0.00,,OVC090,0.00,VWS V14.01,2013-05-14 13:04:00,
2013-05-14 09:09:00,49.2,37.6,30.18,SSW,203,1.0,3.0,64,0.00,,OVC090,0.00,VWS V14.01,2013-05-14 13:09:00,
2013-05-14 09:14:00,49.8,37.3,30.18,SW,217,0.0,2.0,62,0.00,,OVC090,0.00,VWS V14.01,2013-05-14 13:14:00,
2013-05-14 09:19:00,50.3,37.0,30.18,SW,221,3.0,4.0,60,0.00,,OVC090,0.00,VWS V14.01,2013-05-14 13:19:00,
2013-05-14 09:24:00,50.7,36.9,30.18,SSE,165,3.0,4.0,59,0.00,,OVC090,0.00,VWS V14.01,2013-05-14 13:24:00,
2013-05-14 09:29:00,50.9,37.1,30.18,South,169,3.0,5.0,59,0.00,,OVC090,0.00,VWS V14.01,2013-05-14 13:29:00,
2013-05-14 09:34:00,51.3,37.0,30.17,ESE,110,2.0,3.0,58,0.00,,OVC100,0.00,VWS V14.01,2013-05-14 13:34:00,
2013-05-14 09:39:00,51.7,36.5,30.17,SSE,148,3.0,5.0,56,0.00,,OVC100,0.00,VWS V14.01,2013-05-14 13:39:00,
2013-05-14 09:44:00,52.0,36.8,30.17,SSW,210,4.0,6.0,56,0.00,,OVC100,0.00,VWS V14.01,2013-05-14 13:44:00,
2013-05-14 09:49:00,52.2,37.0,30.17,SSW,203,3.0,3.0,56,0.00,,OVC100,0.00,VWS V14.01,2013-05-14 13:49:00,
2013-05-14 09:54:00,52.4,36.7,30.16,SE,127,2.0,6.0,55,0.00,,OVC100,0.00,VWS V14.01,2013-05-14 13:54:00,
2013-05-14 09:59:00,52.6,36.5,30.16,South,169,2.0,4.0,54,0.00,,OVC100,0.00,VWS V14.01,2013-05-14 13:59:00,
2013-05-14 10:04:00,52.7,36.1,30.16,SSW,201,2.0,8.0,53,0.00,,OVC100,0.00,VWS V14.01,2013-05-14 14:04:00,
2013-05-14 10:09:00,53.1,36.9,30.16,SSW,207,3.0,4.0,54,0.00,,OVC100,0.00,VWS V14.01,2013-05-14 14:09:00,
2013-05-14 10:14:00,53.5,35.8,30.15,SSE,165,4.0,9.0,51,0.00,,OVC100,0.00,VWS V14.01,2013-05-14 14:14:00,
2013-05-14 10:19:00,54.2,35.5,30.15,SSE,162,17.0,17.0,49,0.00,,OVC100,0.00,VWS V14.01,2013-05-14 14:19:00,
2013-05-14 10:24:00,54.8,36.5,30.15,SW,232,4.0,8.0,50,0.00,,OVC100,0.00,VWS V14.01,2013-05-14 14:24:00,
2013-05-14 10:29:00,55.6,36.8,30.14,SSW,205,3.0,9.0,49,0.00,,OVC100,0.00,VWS V14.01,2013-05-14 14:29:00,
2013-05-14 10:34:00,56.6,38.2,30.14,SW,229,7.0,8.0,50,0.00,,OVC100,0.00,VWS V14.01,2013-05-14 14:34:00,
2013-05-14 10:39:00,56.7,36.7,30.14,SSW,201,6.0,11.0,47,0.00,,OVC100,0.00,VWS V14.01,2013-05-14 14:39:00,
2013-05-14 10:43:00,57.2,36.6,30.13,SW,232,6.0,12.0,46,0.00,,OVC100,0.00,VWS V14.01,2013-05-14 14:43:00,
2013-05-14 10:48:00,57.9,37.8,30.14,WSW,248,11.0,15.0,47,0.00,,BKN100,0.00,VWS V14.01,2013-05-14 14:48:00,
2013-05-14 10:53:00,58.3,37.6,30.14,SSE,150,7.0,8.0,46,0.00,,BKN100,0.00,VWS V14.01,2013-05-14 14:53:00,
2013-05-14 10:58:00,58.9,38.7,30.14,SSW,210,5.0,8.0,47,0.00,,BKN100,0.00,VWS V14.01,2013-05-14 14:58:00,
2013-05-14 11:03:00,59.0,37.1,30.13,SSE,152,9.0,18.0,44,0.00,,SCT100,0.00,VWS V14.01,2013-05-14 15:03:00,
2013-05-14 11:08:00,59.1,37.8,30.13,SSW,200,6.0,14.0,45,0.00,,SCT100,0.00,VWS V14.01,2013-05-14 15:08:00,
2013-05-14 11:13:00,59.4,38.6,30.12,SW,225,9.0,12.0,46,0.00,,SCT100,0.00,VWS V14.01,2013-05-14 15:13:00,
2013-05-14 11:18:00,59.7,38.3,30.12,South,172,6.0,13.0,45,0.00,,SCT100,0.00,VWS V14.01,2013-05-14 15:18:00,
2013-05-14 11:23:00,60.2,38.8,30.12,South,191,11.0,13.0,45,0.00,,SCT100,0.00,VWS V14.01,2013-05-14 15:23:00,
2013-05-14 11:28:00,60.7,37.5,30.11,SW,228,8.0,13.0,42,0.00,,SCT100,0.00,VWS V14.01,2013-05-14 15:28:00,
2013-05-14 11:33:00,61.1,39.0,30.11,WSW,238,11.0,13.0,44,0.00,,CLR,0.00,VWS V14.01,2013-05-14 15:33:00,
2013-05-14 11:38:00,61.6,38.9,30.11,SW,228,16.0,16.0,43,0.00,,CLR,0.00,VWS V14.01,2013-05-14 15:38:00,
2013-05-14 11:43:00,61.7,37.8,30.11,SSW,212,13.0,18.0,41,0.00,,CLR,0.00,VWS V14.01,2013-05-14 15:43:00,
2013-05-14 11:48:00,61.7,39.0,30.11,South,174,13.0,17.0,43,0.00,,CLR,0.00,VWS V14.01,2013-05-14 15:48:00,
2013-05-14 11:53:00,62.1,38.8,30.11,South,170,5.0,16.0,42,0.00,,CLR,0.00,VWS V14.01,2013-05-14 15:53:00,
2013-05-14 11:58:00,62.7,39.9,30.10,SW,225,11.0,18.0,43,0.00,,CLR,0.00,VWS V14.01,2013-05-14 15:58:00,
2013-05-14 12:03:00,62.6,38.6,30.10,South,169,8.0,14.0,41,0.00,,CLR,0.00,VWS V14.01,2013-05-14 16:03:00,
2013-05-14 12:08:00,63.0,39.0,30.09,SW,228,13.0,14.0,41,0.00,,CLR,0.00,VWS V14.01,2013-05-14 16:08:00,
2013-05-14 12:13:00,63.4,39.3,30.09,SSW,212,8.0,18.0,41,0.00,,CLR,0.00,VWS V14.01,2013-05-14 16:13:00,
2013-05-14 12:18:00,63.2,38.5,30.08,SSW,204,14.0,19.0,40,0.00,,CLR,0.00,VWS V14.01,2013-05-14 16:18:00,
2013-05-14 12:23:00,63.4,39.9,30.08,SW,226,9.0,15.0,42,0.00,,CLR,0.00,VWS V14.01,2013-05-14 16:23:00,
2013-05-14 12:28:00,64.1,39.9,30.08,South,172,10.0,14.0,41,0.00,,CLR,0.00,VWS V14.01,2013-05-14 16:28:00,
2013-05-14 12:33:00,64.6,41.0,30.07,SE,140,6.0,10.0,42,0.00,,CLR,0.00,VWS V14.01,2013-05-14 16:33:00,
2013-05-14 12:38:00,64.4,39.6,30.07,SW,214,11.0,16.0,40,0.00,,CLR,0.00,VWS V14.01,2013-05-14 16:38:00,
2013-05-14 12:43:00,64.7,41.1,30.07,SSE,166,8.0,13.0,42,0.00,,CLR,0.00,VWS V14.01,2013-05-14 16:43:00,
2013-05-14 12:48:00,65.2,41.5,30.06,SW,219,8.0,12.0,42,0.00,,CLR,0.00,VWS V14.01,2013-05-14 16:48:00,
2013-05-14 12:53:00,65.1,40.2,30.05,SW,214,14.0,15.0,40,0.00,,CLR,0.00,VWS V14.01,2013-05-14 16:53:00,
2013-05-14 12:58:00,65.4,39.8,30.05,SE,136,10.0,16.0,39,0.00,,CLR,0.00,VWS V14.01,2013-05-14 16:58:00,
2013-05-14 13:03:00,65.7,40.7,30.05,SSW,207,14.0,16.0,40,0.00,,CLR,0.00,VWS V14.01,2013-05-14 17:03:00,
2013-05-14 13:08:00,66.4,40.7,30.04,South,181,10.0,14.0,39,0.00,,CLR,0.00,VWS V14.01,2013-05-14 17:08:00,
2013-05-14 13:13:00,66.8,41.7,30.04,South,182,10.0,14.0,40,0.00,,CLR,0.00,VWS V14.01,2013-05-14 17:13:00,
2013-05-14 13:18:00,66.9,41.8,30.04,SSW,203,7.0,12.0,40,0.00,,CLR,0.00,VWS V14.01,2013-05-14 17:18:00,
2013-05-14 13:23:00,67.2,40.1,30.04,SSW,200,12.0,19.0,37,0.00,,CLR,0.00,VWS V14.01,2013-05-14 17:23:00,
2013-05-14 13:28:00,67.0,41.2,30.04,SSE,167,4.0,15.0,39,0.00,,CLR,0.00,VWS V14.01,2013-05-14 17:28:00,
2013-05-14 13:33:00,67.0,41.2,30.03,SSW,201,8.0,14.0,39,0.00,,CLR,0.00,VWS V14.01,2013-05-14 17:33:00,
2013-05-14 13:38:00,67.3,41.5,30.03,South,170,7.0,16.0,39,0.00,,CLR,0.00,VWS V14.01,2013-05-14 17:38:00,
2013-05-14 13:43:00,67.3,42.2,30.02,SSE,167,9.0,18.0,40,0.00,,CLR,0.00,VWS V14.01,2013-05-14 17:43:00,
2013-05-14 13:48:00,67.9,42.7,30.02,South,174,14.0,15.0,40,0.00,,CLR,0.00,VWS V14.01,2013-05-14 17:48:00,
2013-05-14 13:53:00,67.9,43.4,30.02,SSW,208,7.0,11.0,41,0.00,,CLR,0.00,VWS V14.01,2013-05-14 17:53:00,
2013-05-14 13:58:00,68.3,43.7,30.01,West,260,6.0,11.0,41,0.00,,CLR,0.00,VWS V14.01,2013-05-14 17:58:00,
2013-05-14 14:03:00,68.5,43.9,30.01,South,169,8.0,13.0,41,0.00,,CLR,0.00,VWS V14.01,2013-05-14 18:03:00,
2013-05-14 14:08:00,68.7,43.4,30.00,South,177,10.0,16.0,40,0.00,,CLR,0.00,VWS V14.01,2013-05-14 18:08:00,
2013-05-14 14:13:00,68.7,43.4,30.00,WSW,238,12.0,19.0,40,0.00,,CLR,0.00,VWS V14.01,2013-05-14 18:13:00,
2013-05-14 14:18:00,68.8,44.2,30.00,South,176,13.0,16.0,41,0.00,,CLR,0.00,VWS V14.01,2013-05-14 18:18:00,
2013-05-14 14:23:00,68.9,44.2,30.00,SSW,201,10.0,15.0,41,0.00,,CLR,0.00,VWS V14.01,2013-05-14 18:23:00,
2013-05-14 14:28:00,69.1,44.4,30.00,South,181,6.0,15.0,41,0.00,,CLR,0.00,VWS V14.01,2013-05-14 18:28:00,
2013-05-14 14:33:00,69.7,45.0,30.00,SSE,153,11.0,19.0,41,0.00,,CLR,0.00,VWS V14.01,2013-05-14 18:33:00,
2013-05-14 14:38:00,69.8,44.4,30.00,SSE,160,12.0,17.0,40,0.00,,CLR,0.00,VWS V14.01,2013-05-14 18:38:00,
2013-05-14 14:43:00,69.7,44.3,30.00,SSW,203,16.0,21.0,40,0.00,,CLR,0.00,VWS V14.01,2013-05-14 18:43:00,
2013-05-14 14:48:00,69.7,45.0,29.99,SSW,204,10.0,14.0,41,0.00,,SCT120,0.00,VWS V14.01,2013-05-14 18:48:00,
2013-05-14 14:53:00,70.2,45.4,29.99,SW,226,12.0,15.0,41,0.00,,SCT120,0.00,VWS V14.01,2013-05-14 18:53:00,
2013-05-14 14:58:00,70.2,45.4,29.99,South,181,9.0,17.0,41,0.00,,SCT120,0.00,VWS V14.01,2013-05-14 18:58:00,
2013-05-14 15:03:00,70.1,44.7,29.99,SSW,196,10.0,14.0,40,0.00,,SCT120,0.00,VWS V14.01,2013-05-14 19:03:00,
2013-05-14 15:08:00,70.2,45.4,29.99,South,181,6.0,12.0,41,0.00,,SCT120,0.00,VWS V14.01,2013-05-14 19:08:00,
2013-05-14 15:13:00,70.3,46.2,29.98,SSW,201,9.0,9.0,42,0.00,,SCT120,0.00,VWS V14.01,2013-05-14 19:13:00,
2013-05-14 15:18:00,70.6,45.8,29.97,South,177,9.0,10.0,41,0.00,,SCT120,0.00,VWS V14.01,2013-05-14 19:18:00,
2013-05-14 15:23:00,71.4,47.1,29.98,SSW,211,7.0,8.0,42,0.00,,SCT120,0.00,VWS V14.01,2013-05-14 19:23:00,
2013-05-14 15:28:00,71.5,45.9,29.97,SSE,167,7.0,14.0,40,0.00,,SCT120,0.00,VWS V14.01,2013-05-14 19:28:00,
2013-05-14 15:33:00,71.3,46.4,29.97,South,176,5.0,14.0,41,0.00,,SCT110,0.00,VWS V14.01,2013-05-14 19:33:00,
2013-05-14 15:38:00,71.3,47.0,29.96,South,183,10.0,10.0,42,0.00,,SCT110,0.00,VWS V14.01,2013-05-14 19:38:00,
2013-05-14 15:43:00,71.7,46.8,29.95,SSE,150,5.0,13.0,41,0.00,,SCT110,0.00,VWS V14.01,2013-05-14 19:43:00,
2013-05-14 15:48:00,71.7,46.1,29.94,WSW,255,5.0,12.0,40,0.00,,BKN110,0.00,VWS V14.01,2013-05-14 19:48:00,
2013-05-14 15:53:00,72.1,47.8,29.94,South,183,5.0,9.0,42,0.00,,BKN110,0.00,VWS V14.01,2013-05-14 19:53:00,
2013-05-14 15:58:00,72.6,48.2,29.94,SE,146,7.0,11.0,42,0.00,,BKN110,0.00,VWS V14.01,2013-05-14 19:58:00,
2013-05-14 16:03:00,73.0,47.9,29.94,SW,224,6.0,12.0,41,0.00,,SCT120,0.00,VWS V14.01,2013-05-14 20:03:00,
2013-05-14 16:08:00,73.2,48.1,29.93,WSW,254,9.0,12.0,41,0.00,,SCT120,0.00,VWS V14.01,2013-05-14 20:08:00,
2013-05-14 16:13:00,73.5,47.7,29.93,SSE,152,11.0,17.0,40,0.00,,SCT120,0.00,VWS V14.01,2013-05-14 20:13:00,
2013-05-14 16:18:00,73.4,48.3,29.93,SSE,160,12.0,12.0,41,0.00,,SCT120,0.00,VWS V14.01,2013-05-14 20:18:00,
2013-05-14 16:23:00,73.6,48.5,29.93,WSW,250,12.0,17.0,41,0.00,,SCT120,0.00,VWS V14.01,2013-05-14 20:23:00,
2013-05-14 16:28:00,73.4,48.9,29.92,SSE,160,10.0,15.0,42,0.00,,SCT120,0.00,VWS V14.01,2013-05-14 20:28:00,
2013-05-14 16:33:00,73.8,49.3,29.92,SSW,204,13.0,13.0,42,0.00,,SCT120,0.00,VWS V14.01,2013-05-14 20:33:00,
2013-05-14 16:38:00,73.9,49.4,29.92,South,188,8.0,13.0,42,0.00,,SCT120,0.00,VWS V14.01,2013-05-14 20:38:00,
2013-05-14 16:43:00,73.9,48.7,29.92,SSW,211,7.0,12.0,41,0.00,,SCT120,0.00,VWS V14.01,2013-05-14 20:43:00,
2013-05-14 16:48:00,73.9,49.4,29.91,SSW,193,9.0,15.0,42,0.00,,BKN120,0.00,VWS V14.01,2013-05-14 20:48:00,
2013-05-14 16:53:00,74.1,49.6,29.91,SSW,208,24.0,24.0,42,0.00,,BKN120,0.00,VWS V14.01,2013-05-14 20:53:00,
2013-05-14 16:58:00,74.1,50.2,29.91,SSW,213,6.0,14.0,43,0.00,,BKN120,0.00,VWS V14.01,2013-05-14 20:58:00,
2013-05-14 17:03:00,73.9,50.0,29.91,South,177,8.0,14.0,43,0.00,,SCT110,0.00,VWS V14.01,2013-05-14 21:03:00,
2013-05-14 17:08:00,74.0,50.1,29.91,SW,229,6.0,9.0,43,0.00,,SCT110,0.00,VWS V14.01,2013-05-14 21:08:00,
2013-05-14 17:13:00,74.3,50.4,29.91,SSW,201,8.0,13.0,43,0.00,,SCT110,0.00,VWS V14.01,2013-05-14 21:13:00,
2013-05-14 17:18:00,74.4,51.1,29.91,West,263,9.0,11.0,44,0.00,,SCT110,0.00,VWS V14.01,2013-05-14 21:18:00,
2013-05-14 17:23:00,74.3,50.4,29.91,SW,226,7.0,17.0,43,0.00,,SCT110,0.00,VWS V14.01,2013-05-14 21:23:00,
2013-05-14 17:28:00,74.9,51.5,29.91,SSW,203,8.0,14.0,44,0.00,,SCT110,0.00,VWS V14.01,2013-05-14 21:28:00,
2013-05-14 17:33:00,75.1,51.1,29.91,SW,219,5.0,12.0,43,0.00,,SCT120,0.00,VWS V14.01,2013-05-14 21:33:00,
2013-05-14 17:38:00,75.5,52.1,29.91,South,183,3.0,8.0,44,0.00,,SCT120,0.00,VWS V14.01,2013-05-14 21:38:00,
2013-05-14 17:43:00,75.7,51.6,29.91,WSW,258,10.0,13.0,43,0.00,,SCT120,0.00,VWS V14.01,2013-05-14 21:43:00,
2013-05-14 17:48:00,75.3,51.9,29.90,South,191,6.0,12.0,44,0.00,,SCT120,0.00,VWS V14.01,2013-05-14 21:48:00,
2013-05-14 17:53:00,75.3,51.3,29.90,ESE,107,4.0,11.0,43,0.00,,SCT120,0.00,VWS V14.01,2013-05-14 21:53:00,
2013-05-14 17:58:00,75.5,51.5,29.90,South,174,10.0,13.0,43,0.00,,SCT120,0.00,VWS V14.01,2013-05-14 21:58:00,
2013-05-14 18:03:00,75.5,51.5,29.90,WSW,239,10.0,15.0,43,0.00,,CLR,0.00,VWS V14.01,2013-05-14 22:03:00,
2013-05-14 18:08:00,75.5,51.5,29.90,WSW,241,13.0,15.0,43,0.00,,CLR,0.00,VWS V14.01,2013-05-14 22:08:00,
2013-05-14 18:13:00,75.6,52.2,29.90,South,177,9.0,11.0,44,0.00,,CLR,0.00,VWS V14.01,2013-05-14 22:13:00,
2013-05-14 18:18:00,75.8,53.0,29.90,SE,145,4.0,8.0,45,0.00,,CLR,0.00,VWS V14.01,2013-05-14 22:18:00,
2013-05-14 18:23:00,76.2,52.7,29.91,SSW,200,5.0,9.0,44,0.00,,CLR,0.00,VWS V14.01,2013-05-14 22:23:00,
2013-05-14 18:28:00,76.3,52.8,29.91,SSW,198,9.0,10.0,44,0.00,,CLR,0.00,VWS V14.01,2013-05-14 22:28:00,
2013-05-14 18:33:00,76.2,52.7,29.91,SSW,205,4.0,11.0,44,0.00,,CLR,0.00,VWS V14.01,2013-05-14 22:33:00,
2013-05-14 18:38:00,76.1,52.6,29.91,WSW,243,6.0,13.0,44,0.00,,CLR,0.00,VWS V14.01,2013-05-14 22:38:00,
2013-05-14 18:43:00,76.2,52.7,29.91,SW,233,4.0,8.0,44,0.00,,CLR,0.00,VWS V14.01,2013-05-14 22:43:00,
2013-05-14 18:48:00,76.2,52.7,29.91,SW,214,11.0,13.0,44,0.00,,CLR,0.00,VWS V14.01,2013-05-14 22:48:00,
2013-05-14 18:53:00,76.3,53.4,29.91,SW,236,2.0,7.0,45,0.00,,CLR,0.00,VWS V14.01,2013-05-14 22:53:00,
2013-05-14 18:58:00,76.5,53.6,29.91,SW,233,4.0,4.0,45,0.00,,CLR,0.00,VWS V14.01,2013-05-14 22:58:00,
2013-05-14 19:03:00,76.5,53.0,29.91,SSW,213,6.0,9.0,44,0.00,,CLR,0.00,VWS V14.01,2013-05-14 23:03:00,
2013-05-14 19:08:00,76.4,53.5,29.91,SW,233,4.0,9.0,45,0.00,,CLR,0.00,VWS V14.01,2013-05-14 23:08:00,
2013-05-14 19:13:00,76.5,53.6,29.91,SW,229,8.0,8.0,45,0.00,,CLR,0.00,VWS V14.01,2013-05-14 23:13:00,
2013-05-14 19:18:00,76.3,53.4,29.91,WSW,257,3.0,8.0,45,0.00,,CLR,0.00,VWS V14.01,2013-05-14 23:18:00,
2013-05-14 19:23:00,76.4,54.1,29.91,SW,235,6.0,9.0,46,0.00,,CLR,0.00,VWS V14.01,2013-05-14 23:23:00,
2013-05-14 19:28:00,76.1,53.8,29.91,SSW,206,5.0,7.0,46,0.00,,CLR,0.00,VWS V14.01,2013-05-14 23:28:00,
2013-05-14 19:33:00,75.5,53.9,29.91,SW,214,2.0,7.0,47,0.00,,CLR,0.00,VWS V14.01,2013-05-14 23:33:00,
2013-05-14 19:38:00,75.1,54.1,29.91,SSW,196,3.0,5.0,48,0.00,,CLR,0.00,VWS V14.01,2013-05-14 23:38:00,
2013-05-14 19:43:00,74.8,53.8,29.91,South,174,3.0,3.0,48,0.00,,CLR,0.00,VWS V14.01,2013-05-14 23:43:00,
2013-05-14 19:48:00,74.6,54.2,29.91,SSW,210,5.0,5.0,49,0.00,,CLR,0.00,VWS V14.01,2013-05-14 23:48:00,
2013-05-14 19:53:00,74.4,54.0,29.91,SSE,166,2.0,3.0,49,0.00,,CLR,0.00,VWS V14.01,2013-05-14 23:53:00,
2013-05-14 19:58:00,74.2,53.8,29.91,SSW,201,4.0,5.0,49,0.00,,CLR,0.00,VWS V14.01,2013-05-14 23:58:00,
2013-05-14 20:03:00,74.1,54.3,29.91,South,187,2.0,4.0,50,0.00,,BKN080,0.00,VWS V14.01,2013-05-15 00:03:00,
2013-05-14 20:08:00,73.9,54.1,29.91,South,174,2.0,2.0,50,0.00,,BKN080,0.00,VWS V14.01,2013-05-15 00:08:00,
2013-05-14 20:13:00,73.6,54.4,29.91,SSE,158,1.0,3.0,51,0.00,,BKN080,0.00,VWS V14.01,2013-05-15 00:13:00,
2013-05-14 20:18:00,73.4,54.2,29.91,SSE,162,2.0,2.0,51,0.00,,BKN080,0.00,VWS V14.01,2013-05-15 00:18:00,
2013-05-14 20:23:00,73.2,54.5,29.90,South,171,3.0,3.0,52,0.00,,BKN080,0.00,VWS V14.01,2013-05-15 00:23:00,
2013-05-14 20:28:00,72.9,54.3,29.90,SSW,196,2.0,3.0,52,0.00,,BKN080,0.00,VWS V14.01,2013-05-15 00:28:00,
2013-05-14 20:33:00,72.5,54.4,29.89,SSW,193,5.0,5.0,53,0.00,,OVC080,0.00,VWS V14.01,2013-05-15 00:33:00,
2013-05-14 20:38:00,72.2,54.1,29.89,SSW,194,3.0,5.0,53,0.00,,OVC080,0.00,VWS V14.01,2013-05-15 00:38:00,
2013-05-14 20:43:00,71.9,54.4,29.89,South,186,3.0,5.0,54,0.00,,OVC080,0.00,VWS V14.01,2013-05-15 00:43:00,
2013-05-14 20:48:00,71.7,54.7,29.89,WSW,243,4.0,5.0,55,0.00,,BKN080,0.00,VWS V14.01,2013-05-15 00:48:00,
2013-05-14 20:53:00,71.5,54.5,29.88,SSW,203,5.0,6.0,55,0.00,,BKN080,0.00,VWS V14.01,2013-05-15 00:53:00,
2013-05-14 20:58:00,71.2,54.7,29.87,South,191,5.0,6.0,56,0.00,,BKN080,0.00,VWS V14.01,2013-05-15 00:58:00,
2013-05-14 21:03:00,70.9,54.9,29.86,SSE,152,3.0,6.0,57,0.00,,SCT080,0.00,VWS V14.01,2013-05-15 01:03:00,
2013-05-14 21:08:00,70.8,54.8,29.86,SE,136,5.0,7.0,57,0.00,,SCT080,0.00,VWS V14.01,2013-05-15 01:08:00,
2013-05-14 21:13:00,70.8,54.8,29.86,SSW,205,2.0,5.0,57,0.00,,SCT080,0.00,VWS V14.01,2013-05-15 01:13:00,
2013-05-14 21:18:00,70.9,54.9,29.86,SSW,197,3.0,7.0,57,0.00,,SCT080,0.00,VWS V14.01,2013-05-15 01:18:00,
2013-05-14 21:23:00,71.0,55.0,29.88,WSW,248,0.0,1.0,57,0.00,,SCT080,0.00,VWS V14.01,2013-05-15 01:23:00,
2013-05-14 21:28:00,71.0,55.0,29.89,SSW,208,0.0,2.0,57,0.00,,SCT080,0.00,VWS V14.01,2013-05-15 01:28:00,
2013-05-14 21:33:00,71.0,55.0,29.89,SSW,196,2.0,3.0,57,0.00,,CLR,0.00,VWS V14.01,2013-05-15 01:33:00,
2013-05-14 21:38:00,71.0,55.0,29.89,South,176,2.0,4.0,57,0.00,,CLR,0.00,VWS V14.01,2013-05-15 01:38:00,
2013-05-14 21:43:00,70.8,54.8,29.88,South,174,3.0,4.0,57,0.00,,CLR,0.00,VWS V14.01,2013-05-15 01:43:00,
2013-05-14 21:48:00,70.7,55.2,29.89,SSW,210,3.0,3.0,58,0.00,,CLR,0.00,VWS V14.01,2013-05-15 01:48:00,
2013-05-14 21:53:00,70.5,55.0,29.89,SSE,160,2.0,5.0,58,0.00,,CLR,0.00,VWS V14.01,2013-05-15 01:53:00,
2013-05-14 21:58:00,70.2,55.2,29.89,SSW,195,1.0,3.0,59,0.00,,CLR,0.00,VWS V14.01,2013-05-15 01:58:00,
2013-05-14 22:03:00,70.0,55.0,29.88,SSE,149,3.0,6.0,59,0.00,,CLR,0.00,VWS V14.01,2013-05-15 02:03:00,
2013-05-14 22:08:00,69.8,54.8,29.88,SSE,158,3.0,5.0,59,0.00,,CLR,0.00,VWS V14.01,2013-05-15 02:08:00,
2013-05-14 22:13:00,69.6,55.1,29.88,SSW,198,3.0,4.0,60,0.00,,CLR,0.00,VWS V14.01,2013-05-15 02:13:00,
2013-05-14 22:18:00,69.5,55.0,29.88,South,186,1.0,3.0,60,0.00,,CLR,0.00,VWS V14.01,2013-05-15 02:18:00,
2013-05-14 22:23:00,69.5,55.5,29.88,South,170,4.0,6.0,61,0.00,,CLR,0.00,VWS V14.01,2013-05-15 02:23:00,
2013-05-14 22:28:00,69.5,55.5,29.89,SSW,203,3.0,3.0,61,0.00,,CLR,0.00,VWS V14.01,2013-05-15 02:28:00,
2013-05-14 22:33:00,69.6,55.6,29.89,SSW,203,1.0,3.0,61,0.00,,CLR,0.00,VWS V14.01,2013-05-15 02:33:00,
2013-05-14 22:38:00,69.7,55.7,29.89,South,191,3.0,4.0,61,0.00,,CLR,0.00,VWS V14.01,2013-05-15 02:38:00,
2013-05-14 22:43:00,69.9,55.4,29.88,South,169,3.0,4.0,60,0.00,,CLR,0.00,VWS V14.01,2013-05-15 02:43:00,
2013-05-14 22:48:00,70.2,55.7,29.87,SW,215,4.0,8.0,60,0.00,,CLR,0.00,VWS V14.01,2013-05-15 02:48:00,
2013-05-14 22:53:00,70.4,55.9,29.87,SSE,155,2.0,4.0,60,0.00,,CLR,0.00,VWS V14.01,2013-05-15 02:53:00,
2013-05-14 22:58:00,70.5,55.5,29.87,SSW,211,4.0,6.0,59,0.00,,CLR,0.00,VWS V14.01,2013-05-15 02:58:00,
2013-05-14 23:03:00,70.7,55.7,29.87,SSW,212,4.0,7.0,59,0.00,,CLR,0.00,VWS V14.01,2013-05-15 03:03:00,
2013-05-14 23:08:00,70.8,55.8,29.87,SW,226,7.0,7.0,59,0.00,,CLR,0.00,VWS V14.01,2013-05-15 03:08:00,
2013-05-14 23:13:00,70.8,55.8,29.86,WSW,243,5.0,7.0,59,0.00,,CLR,0.00,VWS V14.01,2013-05-15 03:13:00,
2013-05-14 23:18:00,70.9,55.9,29.86,SW,217,4.0,7.0,59,0.00,,CLR,0.00,VWS V14.01,2013-05-15 03:18:00,
2013-05-14 23:23:00,70.9,55.9,29.87,SW,236,4.0,7.0,59,0.00,,CLR,0.00,VWS V14.01,2013-05-15 03:23:00,
2013-05-14 23:28:00,70.9,55.9,29.86,WSW,248,4.0,8.0,59,0.00,,CLR,0.00,VWS V14.01,2013-05-15 03:28:00,
2013-05-14 23:33:00,70.9,56.3,29.86,SW,217,5.0,10.0,60,0.00,,CLR,0.00,VWS V14.01,2013-05-15 03:33:00,
2013-05-14 23:38:00,71.0,56.4,29.87,WSW,250,5.0,12.0,60,0.00,,CLR,0.00,VWS V14.01,2013-05-15 03:38:00,
2013-05-14 23:43:00,70.9,56.3,29.87,SW,231,5.0,10.0,60,0.00,,CLR,0.00,VWS V14.01,2013-05-15 03:43:00,
2013-05-14 23:48:00,71.0,56.4,29.87,SSW,205,8.0,14.0,60,0.00,,CLR,0.00,VWS V14.01,2013-05-15 03:48:00,
2013-05-14 23:53:00,71.0,56.4,29.87,SW,229,9.0,11.0,60,0.00,,CLR,0.00,VWS V14.01,2013-05-15 03:53:00,
2013-05-14 23:58:00,70.9,56.3,29.88,SSW,211,7.0,13.0,60,0.00,,CLR,0.00,VWS V14.01,2013-05-15 03:58:00,